ECMWFFLT1_850_thetae_000.txt.gz
Theta_e
312 312 312 312 312 312 312 311 311 310 310 309 309 308 307 308 308 307 307 307 306 305 305 304 302 300 298 296 295 294 294 293 293 293 292 292 292 292 292 293 293 292 291 290 290 289 289 289 288 288 288 288 288 287 287 287 286 286 286 286 286 286
312 312 313 312 312 312 312 311 311 311 310 310 309 308 307 307 307 307 307 307 306 305 304 304 303 301 299 297 295 294 293 293 293 292 292 292 292 292 292 292 292 292 291 290 289 289 289 289 288 288 288 288 287 287 287 286 286 286 286 286 286 285
312 312 312 313 312 312 312 312 312 311 311 311 310 309 308 308 308 307 307 307 306 305 304 304 303 302 299 297 295 294 293 293 292 292 292 292 292 292 292 292 292 291 290 290 289 289 289 288 288 288 288 287 287 287 286 286 286 286 285 285 285 285
311 312 312 312 312 312 313 312 312 312 311 311 310 309 309 309 309 308 308 307 305 305 304 303 302 301 300 298 296 294 293 292 292 291 291 291 291 291 292 292 291 290 290 290 289 289 288 288 288 288 287 287 287 286 286 286 285 285 285 285 285 285
311 312 312 312 313 312 312 312 312 312 312 311 310 309 308 308 309 308 307 306 305 304 302 301 301 300 299 298 296 294 293 292 291 291 291 291 291 291 291 291 291 290 290 289 289 288 288 288 288 287 287 286 286 286 286 285 285 285 285 285 284 284
312 311 311 312 312 312 312 312 312 311 310 310 310 309 307 306 306 307 307 306 305 303 301 300 299 299 298 297 296 294 292 291 291 291 291 291 291 291 291 290 290 290 290 289 288 288 288 288 287 287 286 286 286 286 285 285 285 285 284 284 284 284
312 311 311 311 311 311 311 311 311 310 310 309 309 309 307 304 303 304 306 306 304 303 302 300 298 298 297 297 295 294 292 291 291 290 290 290 290 290 290 290 289 289 289 289 288 288 287 287 287 286 286 286 285 285 285 285 284 284 284 284 284 283
312 312 311 311 311 311 311 311 311 310 309 309 309 308 307 304 303 302 303 303 303 302 301 299 298 297 297 296 295 293 292 291 291 290 290 290 290 290 290 289 289 289 289 288 288 287 287 286 286 286 286 285 285 285 284 284 284 284 284 283 283 283
312 311 311 311 311 311 311 310 310 309 309 309 309 308 306 305 303 302 302 302 301 301 300 299 298 297 296 295 293 292 291 291 290 290 290 290 290 290 289 289 289 289 288 288 287 287 286 286 285 285 285 285 284 284 284 283 283 283 283 283 283 282
312 311 311 311 311 311 310 310 309 309 309 308 308 308 307 305 304 302 302 301 300 300 299 298 296 295 294 293 292 291 291 290 290 289 289 289 290 289 289 289 289 288 287 287 287 286 286 285 285 285 284 284 284 283 283 283 283 283 283 282 282 282
312 311 311 311 311 311 310 310 310 309 308 308 308 308 307 305 304 302 301 300 300 299 297 295 294 293 292 291 290 290 290 290 290 289 289 289 289 289 289 288 288 287 287 287 286 286 285 285 285 284 284 284 283 283 283 283 283 282 282 282 281 281
311 311 311 311 311 311 311 310 310 309 309 308 308 307 306 305 303 302 301 300 299 297 295 293 292 291 290 289 289 290 290 290 289 289 289 289 289 288 288 288 287 287 286 286 285 285 285 284 284 284 284 283 283 283 283 282 282 282 281 281 281 281
311 311 311 311 311 311 311 311 310 310 309 308 308 307 305 304 303 301 300 299 297 296 294 293 292 290 289 288 289 289 289 289 289 289 289 289 288 288 288 288 287 286 286 285 285 284 284 284 284 284 283 283 282 282 282 282 282 281 281 280 280 280
312 312 311 311 311 311 311 310 310 309 309 308 307 306 304 303 302 300 299 298 296 295 294 293 291 290 289 288 289 289 289 289 289 289 289 288 288 288 288 287 286 286 286 285 284 284 284 284 284 284 283 283 282 282 281 281 280 280 280 280 280 280
312 312 312 312 312 312 311 311 310 310 309 308 307 305 304 302 301 300 298 297 296 295 293 292 290 289 288 288 289 289 289 289 288 288 288 288 288 287 287 286 286 286 285 284 284 284 284 284 284 283 283 282 282 281 281 280 280 279 280 279 279 279
312 312 313 313 312 312 311 310 310 309 308 307 306 305 304 302 301 300 298 296 295 293 292 291 290 289 288 288 288 288 288 288 288 288 288 287 287 287 287 286 286 285 285 284 284 284 284 284 284 283 282 282 282 281 280 279 279 279 279 279 279 279
313 312 312 312 312 311 311 310 309 309 308 307 306 305 304 303 301 299 297 295 294 292 291 290 289 288 288 288 288 288 288 288 288 287 287 287 287 287 286 286 286 286 285 285 285 284 284 284 283 283 282 282 281 280 280 279 279 279 279 279 279 278
313 312 312 312 311 311 310 310 309 308 308 307 306 305 304 302 300 298 296 295 293 292 290 289 288 288 288 288 288 288 287 287 287 287 287 287 287 286 286 286 286 286 286 285 285 284 284 283 283 282 282 281 281 280 279 279 279 279 279 279 278 278
313 312 312 311 311 310 310 309 309 308 308 307 305 304 303 301 299 298 296 295 293 292 291 290 289 289 288 288 288 288 287 287 287 287 287 287 286 286 286 287 287 286 286 285 285 285 284 283 282 282 281 281 280 279 279 279 279 279 279 278 277 277
312 312 311 311 310 310 309 308 308 308 307 306 305 303 302 301 299 298 297 296 294 293 292 291 290 289 288 288 288 288 287 287 287 287 287 287 287 287 287 287 287 286 285 285 285 284 284 283 282 281 281 280 279 279 279 279 279 279 278 277 276 276
311 311 311 310 310 309 308 308 308 308 307 306 305 303 302 301 301 300 299 297 295 293 292 291 290 289 288 288 288 287 287 287 287 287 287 287 287 287 287 287 287 286 285 285 284 284 283 282 281 281 280 279 279 279 279 279 279 277 276 276 275 275
311 311 311 310 310 309 308 307 307 307 307 306 305 304 303 303 302 301 299 296 294 293 291 290 289 288 288 288 287 287 287 287 287 287 287 287 287 287 287 287 286 285 285 284 284 283 282 281 281 280 279 279 279 279 279 279 278 276 275 275 274 274
311 311 311 310 309 308 307 307 306 306 306 305 305 305 305 303 301 299 298 295 293 292 290 289 288 288 287 287 287 287 287 287 287 287 287 287 288 288 287 287 286 285 285 284 283 282 281 281 280 279 279 279 279 279 279 278 276 275 274 274 274 274
309 309 309 309 309 308 307 306 306 306 305 305 306 306 304 302 300 299 298 295 292 291 290 288 287 287 287 287 287 287 287 287 287 287 287 287 288 288 287 286 286 285 284 283 282 281 280 280 279 279 278 278 279 279 278 276 275 274 274 274 274 274
308 308 308 308 308 307 307 306 305 305 305 306 306 305 303 301 300 299 297 295 292 290 289 288 287 286 286 286 286 286 287 287 287 287 287 288 288 287 287 286 285 284 282 281 281 280 279 279 278 278 278 278 278 279 277 275 274 274 274 273 274 274
306 306 307 307 307 306 306 305 305 304 305 305 305 303 302 301 300 298 296 293 291 290 288 287 286 285 285 286 286 286 286 287 287 287 287 288 287 287 287 286 284 282 281 280 279 279 278 278 278 278 278 278 278 278 276 274 274 274 274 274 274 274
305 305 305 305 305 305 305 304 304 304 304 303 302 301 301 300 299 297 295 292 291 289 288 286 285 285 285 286 286 286 286 287 287 287 287 287 287 287 286 284 282 281 280 279 278 278 278 278 278 278 278 278 278 276 275 274 274 274 274 274 274 274
304 304 304 304 304 304 303 303 303 303 303 301 300 299 299 299 298 296 294 291 290 288 287 286 285 284 285 285 286 286 286 287 287 288 288 288 287 286 284 283 281 280 279 278 278 278 277 277 277 278 278 278 276 274 274 274 274 274 274 274 273 273
302 302 302 302 302 302 302 302 302 302 302 300 298 298 297 297 296 295 293 291 289 287 286 285 284 284 285 285 285 286 286 287 287 288 288 288 287 285 283 282 281 280 279 278 278 277 277 277 277 278 277 276 274 273 273 273 273 274 274 273 272 272
301 301 301 301 301 301 301 301 301 301 301 300 298 297 295 295 294 293 292 290 288 287 286 285 284 284 285 285 285 286 286 287 287 287 287 287 286 284 283 282 281 279 278 278 278 277 277 277 277 277 275 274 272 272 272 273 273 273 273 273 272 272
300 300 300 300 300 300 300 300 301 300 300 300 298 296 295 294 293 291 290 289 287 286 285 284 284 284 285 285 285 286 286 287 288 288 287 285 283 282 281 280 279 279 278 277 277 277 277 277 276 275 274 273 273 272 272 272 273 273 273 272 272 273
300 299 299 299 299 299 299 299 300 300 300 299 298 296 295 293 291 289 288 287 286 285 284 283 283 284 285 285 285 286 286 286 285 285 285 283 281 280 279 279 278 277 277 277 277 277 276 276 275 274 273 273 273 273 273 273 273 273 273 273 273 273
298 298 298 297 297 298 298 298 298 298 298 298 297 296 294 292 291 289 287 286 285 285 284 283 283 284 284 285 286 287 287 285 283 282 281 281 280 279 278 277 277 276 276 276 276 276 275 274 274 273 274 274 273 273 273 273 273 272 272 273 273 273
297 297 297 297 297 297 297 297 297 297 296 296 295 294 293 291 290 289 288 286 284 284 283 283 283 284 284 285 286 287 287 286 284 281 279 278 278 277 277 276 276 276 276 276 275 275 274 274 273 273 274 273 273 273 273 272 272 272 272 273 273 273
297 296 296 295 295 296 296 296 297 297 296 295 294 293 292 291 290 289 287 286 284 283 282 282 283 284 285 286 286 286 285 285 285 283 280 277 276 275 275 276 275 275 274 274 274 273 273 273 273 273 273 273 273 273 273 272 272 272 272 273 273 273
295 295 295 294 294 295 295 295 296 296 295 294 294 292 291 291 289 287 286 286 284 283 282 282 283 284 285 286 286 286 285 284 284 283 281 279 276 275 274 274 274 273 273 273 272 272 272 273 273 273 273 273 273 273 273 272 272 272 272 273 273 272
294 294 294 294 294 294 294 294 294 294 294 293 291 291 290 289 287 285 284 284 284 283 283 283 283 284 286 286 286 286 286 284 282 281 280 279 278 277 276 275 274 273 273 272 272 272 272 273 273 273 273 273 273 273 273 272 272 273 273 273 272 272
292 292 293 293 293 293 293 293 293 293 292 292 290 289 288 287 285 283 282 282 282 282 282 283 284 285 286 286 286 286 285 283 281 279 278 278 278 278 277 275 274 273 273 273 272 272 272 273 273 273 273 273 273 273 273 273 273 273 273 273 272 271

ECMWFFLT1_850_thetae_003.txt.gz
Theta_e
311 311 311 312 312 312 312 312 312 312 312 311 311 311 311 310 309 309 308 307 307 306 306 306 306 305 305 304 302 300 300 300 300 299 297 296 295 294 294 293 293 293 293 293 293 293 293 293 293 293 293 292 290 289 288 288 287 287 287 286 286 286
312 311 311 312 312 312 312 312 312 312 312 312 311 311 310 309 309 309 308 308 307 306 306 305 305 305 304 304 303 301 300 299 299 299 298 296 295 294 293 293 293 293 293 293 293 293 293 293 293 293 292 291 290 289 288 287 287 287 286 286 286 286
312 311 311 311 311 311 311 311 312 312 312 312 311 311 310 310 309 309 308 308 307 306 306 306 304 303 303 302 302 301 300 298 298 298 298 296 295 294 293 293 293 292 292 293 293 293 293 293 293 292 292 290 289 288 288 287 287 287 286 286 286 286
312 311 311 311 311 311 311 311 312 312 311 312 311 311 310 310 310 309 309 308 307 307 306 305 303 302 301 301 300 300 299 298 297 297 297 296 295 294 293 293 292 292 292 292 292 293 293 292 292 292 291 290 289 288 287 287 287 286 286 286 286 286
312 312 311 311 311 311 311 311 311 311 312 312 311 311 311 311 310 310 309 307 307 307 305 304 303 302 300 299 299 299 298 297 296 295 296 295 294 293 292 292 292 292 292 292 292 292 292 292 292 292 290 289 288 288 287 287 286 286 286 286 286 285
312 312 311 312 311 311 311 311 311 311 312 311 311 311 311 311 310 309 307 307 306 306 304 304 303 301 300 299 298 297 296 295 294 293 294 294 293 292 292 291 292 292 292 292 292 292 292 292 292 291 290 289 288 287 287 287 286 286 286 286 286 285
312 312 312 313 312 311 311 311 311 311 311 311 311 311 311 310 309 308 307 306 306 305 304 304 303 301 300 300 299 298 296 295 294 293 292 292 292 292 291 291 291 291 291 292 292 292 292 292 292 291 289 288 288 287 287 286 286 286 286 286 285 285
313 312 313 313 312 312 311 311 311 311 311 311 310 310 310 310 309 307 306 306 305 305 304 303 303 302 301 300 299 298 297 295 294 292 292 291 291 291 290 290 291 291 291 291 292 292 292 292 291 290 289 288 287 287 287 286 286 286 286 285 285 285
313 313 313 313 312 312 312 311 311 311 310 311 310 310 310 309 309 307 306 306 306 305 304 303 303 302 301 300 299 298 297 295 294 293 292 291 290 290 290 290 290 290 291 291 291 291 291 291 291 290 288 288 287 287 286 286 286 285 285 285 285 284
313 313 313 313 312 313 312 312 311 310 311 311 310 310 310 309 309 308 307 306 305 305 304 303 302 301 300 299 298 297 296 295 294 292 291 291 290 290 290 290 290 290 290 291 291 291 291 291 290 289 288 287 287 287 286 286 285 285 285 285 284 284
312 312 313 313 312 313 312 311 311 311 311 311 310 310 310 309 309 308 307 306 305 305 304 302 301 300 299 298 297 296 296 295 293 292 291 290 289 289 289 289 289 290 290 291 291 291 290 290 289 288 287 287 287 286 286 286 285 285 285 285 284 284
312 312 312 313 312 312 312 311 311 311 311 311 311 310 310 309 309 308 307 306 306 304 303 302 301 300 299 297 297 296 295 294 292 291 290 289 289 289 289 289 289 289 290 290 290 290 290 289 288 287 287 287 286 286 286 286 285 285 285 285 284 284
311 312 312 313 312 312 312 311 311 311 311 311 311 310 310 309 308 308 307 307 305 304 302 301 300 299 298 297 296 295 294 293 292 291 290 289 289 289 288 288 289 289 290 290 290 290 289 289 287 287 287 286 286 286 286 286 285 285 285 284 284 284
311 312 313 313 312 312 312 312 311 311 311 311 310 310 309 308 308 308 307 306 305 303 302 301 300 299 298 297 296 295 294 292 291 291 290 289 289 289 288 288 289 289 289 290 289 289 289 288 287 286 286 286 286 286 286 286 286 286 285 285 284 284
312 312 313 312 312 312 312 312 311 311 312 311 310 310 309 308 307 307 306 305 304 303 302 301 300 299 298 297 295 294 293 292 291 291 290 290 289 288 288 288 288 289 289 289 289 289 288 287 286 286 286 286 286 286 286 287 287 286 285 284 283 283
312 312 313 312 312 312 312 312 312 312 312 311 310 309 308 307 307 306 306 305 304 303 302 301 300 299 297 296 295 294 293 292 291 290 290 289 289 288 288 288 288 289 289 289 289 288 287 286 286 287 286 286 286 286 286 287 286 286 285 284 283 282
312 312 312 312 312 312 312 312 312 312 311 311 310 310 308 307 306 305 305 304 303 303 302 301 300 298 297 295 294 293 292 291 290 290 289 289 289 288 288 288 288 288 288 288 288 287 286 286 287 287 286 286 286 286 286 286 285 285 284 283 282 281
311 312 312 312 312 312 311 312 312 311 311 310 310 310 308 307 305 305 304 304 304 303 302 301 299 298 296 295 294 293 292 291 290 290 289 289 288 288 288 288 288 288 288 288 287 286 287 287 287 286 286 286 286 285 285 285 285 284 283 282 281 280
311 311 312 312 312 312 312 311 311 310 310 310 309 309 308 306 305 305 304 304 304 303 302 301 299 297 296 295 294 293 292 291 290 290 289 289 288 288 287 287 288 288 288 287 286 287 287 287 287 286 286 285 285 285 285 285 284 283 282 281 280 280
310 310 311 312 312 312 312 311 310 310 309 309 309 308 307 306 305 305 305 304 304 303 302 300 299 297 296 295 294 293 292 291 290 289 289 289 288 287 287 287 288 287 287 287 286 287 287 287 287 286 286 285 285 284 284 284 283 282 281 280 280 280
309 310 310 310 311 311 310 309 309 308 308 308 308 307 307 306 306 306 306 305 304 302 301 300 298 297 296 295 294 293 291 291 290 289 288 288 287 287 287 287 287 287 286 286 286 286 287 287 287 286 286 285 285 284 284 283 282 281 280 280 280 279
307 307 307 308 308 308 308 308 307 307 307 307 307 307 307 307 307 307 306 305 303 301 300 299 298 297 296 295 293 292 291 290 290 289 288 287 286 286 287 287 286 286 286 286 286 286 287 287 286 286 286 285 284 283 283 282 281 281 280 280 280 280
304 305 306 306 306 306 306 306 305 305 305 305 305 306 306 307 306 305 304 303 302 301 300 298 297 296 294 293 292 291 290 289 289 288 288 287 286 286 286 286 286 285 285 285 286 286 286 286 286 286 285 284 283 282 282 281 281 280 280 280 280 280
300 302 303 304 304 305 305 304 304 304 304 304 304 304 304 304 304 303 303 302 301 299 298 297 296 295 293 292 290 290 289 288 288 287 287 286 285 285 285 285 285 285 285 285 285 285 285 285 286 285 284 283 282 282 281 280 280 279 279 280 280 279
299 299 299 300 302 303 303 303 303 302 302 302 302 302 302 302 302 302 301 301 300 299 298 296 295 294 292 291 290 289 288 287 287 286 286 285 285 285 285 284 284 284 285 285 285 285 285 285 285 284 283 282 281 281 280 280 279 279 280 280 279 279
299 299 299 299 299 300 301 301 301 301 301 301 301 301 301 301 301 300 300 300 299 298 297 296 294 293 292 290 289 288 287 287 286 286 285 285 285 285 285 284 284 285 285 286 285 285 286 286 285 283 282 281 280 280 279 279 279 280 280 279 279 279
299 299 299 299 299 299 300 300 301 301 301 300 300 300 300 300 300 300 299 299 298 297 296 295 293 292 291 289 288 287 286 286 286 285 285 284 284 285 285 284 285 285 286 285 286 286 286 285 283 282 281 280 280 279 279 279 279 279 279 279 279 278
299 299 300 300 300 300 300 300 301 301 301 301 300 300 300 300 299 299 298 298 297 297 296 294 293 291 290 288 287 286 286 285 285 285 284 284 284 284 284 285 285 286 285 285 286 287 285 283 282 281 280 280 279 279 279 279 279 279 279 278 278 277
296 298 299 299 299 299 300 300 300 300 300 300 300 300 300 299 299 298 298 298 297 296 295 294 293 292 290 288 287 285 284 284 285 285 284 284 284 284 284 285 286 286 285 286 286 286 284 282 281 280 280 279 279 279 279 279 279 279 278 277 277 276
295 296 297 297 298 298 299 299 298 298 298 299 299 299 299 299 298 298 298 297 297 296 295 294 293 292 291 289 287 285 284 284 284 284 284 284 284 284 284 285 286 286 287 288 287 285 282 281 280 280 280 279 279 279 280 280 279 278 277 276 275 275
294 295 295 295 296 296 297 298 297 297 297 297 298 298 298 298 297 297 297 297 296 296 295 294 293 292 290 289 287 285 284 284 283 283 283 284 284 285 285 286 287 287 288 288 288 285 283 281 280 280 279 279 279 279 280 279 278 277 276 275 274 274
293 294 294 294 294 295 296 296 297 297 297 297 297 297 297 297 296 296 296 296 296 296 295 294 293 292 290 289 287 285 284 282 282 282 282 283 284 285 286 287 288 288 289 288 286 283 281 281 280 279 278 279 279 279 278 277 276 275 275 274 274 273
291 292 292 292 293 294 295 296 296 296 296 296 296 296 296 296 295 296 296 296 296 296 295 294 293 291 289 287 286 285 283 281 281 281 281 282 284 285 285 285 285 286 286 285 283 281 279 278 278 278 278 278 278 277 276 276 275 274 274 274 273 273
288 290 291 292 293 293 294 294 295 295 295 295 295 295 295 295 294 294 295 295 295 294 292 291 290 288 286 284 282 281 281 281 280 279 279 281 283 283 283 282 281 282 282 281 280 280 279 278 277 278 278 278 277 276 276 275 274 274 274 274 273 273
285 286 288 289 290 291 292 292 293 293 293 294 294 294 294 293 293 293 293 293 293 292 290 288 287 285 284 282 281 280 279 280 280 279 279 279 279 279 279 278 279 280 281 280 279 278 278 278 278 278 277 277 276 276 275 274 274 274 274 273 273 273
282 284 286 287 287 287 288 289 290 291 292 292 293 293 293 292 292 292 292 292 292 291 290 288 286 284 283 282 280 279 278 278 279 280 279 278 276 276 276 276 277 279 279 279 278 277 277 277 277 277 277 276 275 275 274 274 274 273 273 272 272 272
280 283 286 286 286 285 286 287 289 289 290 291 292 292 292 292 291 291 290 290 290 289 289 288 286 285 283 281 279 278 278 277 278 279 280 278 277 276 276 276 276 277 278 277 277 276 276 276 276 276 276 275 275 274 274 273 273 273 272 272 272 272
279 282 283 282 282 283 284 286 287 287 287 289 290 290 291 290 290 289 289 288 288 288 287 286 286 284 282 280 278 277 276 276 277 278 278 278 278 279 279 278 277 276 276 276 275 275 275 275 275 275 275 275 274 274 273 273 273 272 272 272 272 272

ECMWFFLT1_850_thetae_006.txt.gz
Theta_e
313 313 312 312 311 311 310 310 310 310 310 309 309 310 311 311 311 310 310 309 309 309 309 309 309 308 308 307 306 305 304 304 303 302 301 300 299 298 297 296 296 296 295 294 294 294 293 293 294 294 294 294 294 294 294 294 294 294 294 293 291 289
313 313 312 312 311 310 310 310 310 310 310 310 309 309 310 311 311 310 310 310 310 310 309 309 309 308 308 307 306 305 305 304 303 302 301 300 299 298 297 296 296 295 294 294 293 293 293 293 293 294 294 294 294 293 293 294 294 294 294 292 290 289
313 312 312 312 311 310 310 310 311 311 310 311 310 310 310 311 312 311 311 311 310 310 309 309 309 308 308 307 306 306 305 304 302 301 300 299 299 298 297 296 295 295 294 293 293 293 293 293 293 293 293 293 293 293 293 293 293 294 293 292 290 289
313 312 312 312 312 311 311 311 311 311 311 311 311 310 310 311 312 312 311 311 310 310 310 309 309 308 307 307 306 305 305 304 303 301 300 299 299 298 297 296 295 294 294 293 293 292 292 292 293 293 293 293 293 293 293 293 293 293 293 291 289 289
313 313 313 313 312 312 311 311 311 311 311 311 311 311 311 311 312 312 312 311 311 311 310 309 309 308 307 307 306 306 305 304 303 301 300 299 299 297 296 295 294 294 293 293 292 292 292 292 292 293 293 293 293 293 293 293 293 293 292 291 289 289
313 313 313 313 313 312 312 311 311 312 311 311 311 311 311 311 312 312 311 311 311 310 310 309 308 308 307 307 307 306 305 304 303 302 300 299 298 297 295 294 294 293 293 293 292 292 291 292 292 292 293 293 293 293 293 293 293 292 292 290 289 289
312 313 313 313 313 313 313 312 312 312 313 312 311 311 311 311 311 311 311 311 310 310 310 309 308 308 308 308 307 306 305 304 303 302 301 299 298 296 295 294 293 293 293 293 292 291 291 291 292 292 292 292 292 292 292 292 292 292 291 289 289 288
312 312 313 313 312 313 313 313 313 312 313 313 313 312 311 310 311 311 310 310 309 309 309 309 309 308 308 308 307 306 305 304 303 302 301 299 297 296 295 294 293 293 293 293 292 291 291 291 291 292 292 292 292 292 292 292 292 291 290 289 288 288
312 312 312 312 312 312 312 313 313 312 312 313 313 313 311 310 310 310 310 309 309 309 309 309 309 309 309 308 306 306 304 303 303 301 300 299 297 296 294 294 293 293 292 292 292 291 290 290 291 291 291 292 292 292 292 292 291 290 289 288 288 288
311 311 312 312 312 312 312 312 312 312 312 312 313 313 312 311 310 310 310 309 309 309 309 309 309 308 308 306 305 304 303 303 302 301 299 298 297 296 295 294 293 293 292 292 291 291 290 290 290 291 291 291 291 291 291 291 291 290 289 288 288 287
311 310 311 311 311 312 312 312 312 312 311 312 312 313 313 312 311 310 309 308 309 309 309 309 308 307 306 305 303 303 303 302 302 300 299 297 296 296 295 294 293 292 292 291 291 290 290 290 290 290 291 291 291 291 291 291 290 289 288 288 287 287
310 310 310 311 311 311 312 312 312 311 312 312 312 312 312 312 311 310 309 309 309 309 309 308 307 306 305 304 303 303 302 302 301 300 299 297 296 295 294 293 293 292 292 291 291 290 289 289 289 290 290 290 290 290 290 290 289 288 288 288 287 286
309 309 310 310 310 311 312 312 311 311 312 312 312 312 312 312 311 310 309 310 310 309 308 307 307 306 305 304 303 302 302 301 300 299 298 297 295 294 294 293 293 292 291 291 290 290 289 289 289 289 290 290 290 290 290 289 289 288 288 287 287 286
307 308 309 309 310 311 311 312 312 312 312 312 312 312 312 311 311 310 310 310 310 309 308 307 306 306 305 304 303 302 301 300 299 299 298 297 295 294 293 293 292 292 291 291 290 290 289 289 289 289 289 289 290 290 289 289 288 288 287 287 287 287
305 305 306 307 308 309 310 311 311 312 312 312 312 312 312 312 311 310 310 310 310 308 307 306 306 305 305 304 303 301 300 300 299 298 298 297 295 294 293 293 292 291 291 290 290 289 289 288 288 289 289 289 289 289 288 288 287 287 287 287 287 287
302 302 304 305 306 308 309 309 310 311 311 312 312 312 312 311 310 310 310 309 308 308 306 306 305 305 304 303 302 301 300 299 299 298 297 296 295 294 293 292 292 291 291 290 290 289 288 288 288 288 288 288 288 288 287 287 287 287 287 287 287 287
301 301 302 303 305 306 307 308 308 309 310 311 312 312 312 311 310 309 309 308 307 307 306 305 304 304 303 303 302 301 300 299 298 298 297 296 295 294 293 293 292 292 291 290 289 289 288 287 287 287 287 287 287 287 286 286 286 286 286 286 287 287
301 300 300 300 301 304 306 307 307 307 308 309 310 310 310 310 309 308 308 308 307 306 305 304 304 303 303 302 301 301 300 299 298 298 296 295 294 293 292 292 292 291 291 290 289 288 287 287 287 287 287 287 286 286 286 286 286 287 287 287 288 288
300 300 299 299 299 301 303 305 306 307 308 308 308 308 309 309 309 309 308 308 307 306 304 303 303 303 303 302 302 301 300 299 298 297 296 295 294 293 292 292 291 291 290 290 289 288 287 286 286 286 286 286 286 286 286 287 287 287 287 288 288 288
299 299 299 299 299 299 300 302 304 306 307 308 307 307 308 308 309 308 308 307 306 304 303 302 302 302 302 302 301 301 300 299 298 297 295 294 293 293 292 292 291 290 290 289 288 287 286 286 286 286 286 286 285 285 286 287 287 287 287 288 288 287
296 297 297 298 299 299 299 300 302 303 304 305 305 305 306 307 307 307 306 306 304 303 302 301 300 300 300 300 300 300 299 298 297 296 295 293 293 292 292 291 291 290 289 289 288 287 286 286 286 286 286 285 285 285 286 287 287 287 287 287 287 286
294 295 295 296 298 299 299 299 300 301 302 302 303 304 304 304 304 304 304 303 302 302 301 300 300 299 299 299 299 299 298 298 296 296 294 293 292 292 291 291 290 289 289 288 287 286 285 286 285 285 285 285 285 286 286 287 287 287 287 287 286 284
293 293 294 294 295 297 299 300 299 299 300 300 301 302 302 303 303 302 302 301 301 301 301 300 299 299 298 299 298 298 297 297 296 295 294 293 292 291 291 290 289 288 288 288 287 285 285 285 285 285 285 285 285 286 287 286 286 286 286 285 284 283
292 292 293 293 294 295 297 299 300 299 299 300 300 300 301 301 301 302 301 301 300 299 299 299 298 298 297 297 297 297 296 296 295 294 293 293 292 291 290 289 289 288 287 287 286 285 285 285 284 284 285 285 285 286 286 286 286 286 285 283 283 282
290 291 292 293 293 294 294 297 299 299 299 299 299 300 300 300 300 301 301 301 300 299 298 297 297 297 296 296 296 296 295 295 294 293 292 292 291 290 289 288 288 287 287 286 285 285 284 284 284 284 284 285 285 285 285 286 286 285 283 282 282 282
288 289 290 291 292 293 293 294 296 298 298 299 299 299 300 300 300 299 300 300 301 300 300 298 297 296 296 296 295 294 294 294 293 292 291 291 290 289 288 288 287 286 286 286 285 284 284 283 283 284 284 285 284 284 284 285 285 283 282 282 282 281
287 288 289 289 290 291 292 293 295 296 297 297 298 299 299 299 299 299 299 299 299 300 300 300 299 298 297 296 296 295 294 293 292 292 291 290 289 288 288 287 287 286 286 285 285 284 284 283 283 283 284 284 284 283 283 283 283 282 281 281 282 281
286 286 287 288 289 289 290 291 293 294 295 295 296 297 298 298 298 298 298 299 299 299 299 299 299 298 298 297 296 296 294 293 292 291 291 290 289 288 287 287 286 286 285 285 284 284 283 283 283 283 283 283 283 283 281 280 280 280 280 281 281 280
284 285 286 287 288 288 287 289 290 291 292 293 295 296 296 297 297 297 297 298 298 298 298 298 298 298 297 297 296 296 295 294 292 291 290 289 289 288 287 286 286 286 285 285 284 283 283 283 283 283 283 283 283 282 280 279 279 279 279 280 281 280
284 285 285 287 288 287 287 287 288 289 290 291 293 295 296 296 297 297 297 297 297 297 297 297 297 297 296 296 296 296 296 295 293 292 292 291 291 290 289 288 287 286 286 285 284 283 282 282 283 283 284 284 284 282 280 279 280 280 280 280 280 279
282 283 284 286 287 286 286 287 287 288 290 291 292 294 295 296 296 297 297 297 296 296 295 295 295 295 295 295 295 294 294 294 293 293 292 292 291 291 290 290 289 288 287 285 284 283 283 283 283 284 285 285 284 282 281 281 281 280 280 280 279 279
282 282 284 286 286 284 284 286 287 288 289 290 291 293 293 294 295 295 296 296 296 296 295 294 294 294 293 293 293 292 291 291 290 289 289 289 288 287 287 288 288 288 287 286 284 284 284 284 285 286 285 283 281 279 279 280 280 280 279 279 279 279
281 282 284 285 285 283 284 285 287 287 287 287 288 290 292 292 293 294 295 295 295 295 295 293 293 293 292 291 291 290 289 288 287 286 286 285 285 285 284 283 284 285 285 284 284 283 283 284 285 285 284 281 278 278 278 278 279 278 279 279 279 278
279 280 282 283 283 283 283 285 287 288 286 284 285 287 288 290 291 292 293 294 295 295 294 293 292 292 291 290 289 288 287 287 286 284 283 282 282 282 281 281 281 281 282 282 282 282 283 283 284 283 281 279 277 277 278 278 278 279 279 279 278 277
276 277 279 280 281 282 283 285 287 287 285 283 284 284 285 287 289 290 291 292 293 294 294 293 292 291 290 290 289 288 287 286 285 284 282 281 280 279 279 279 279 279 279 280 280 281 283 283 282 280 279 278 277 278 278 278 278 278 278 278 277 277
276 277 278 277 278 280 282 285 287 286 283 282 284 283 283 284 286 287 289 290 291 292 293 293 292 291 290 289 288 288 287 286 285 284 282 280 278 277 277 277 277 277 278 279 280 280 281 281 280 278 277 277 277 278 278 278 278 278 277 276 276 276
275 278 277 275 276 278 280 283 285 283 280 280 281 281 282 283 284 285 287 288 289 290 291 292 291 291 290 289 287 287 286 285 283 282 280 279 279 277 276 276 276 276 277 278 278 278 278 278 278 277 277 277 277 278 278 278 278 277 276 276 276 275
275 277 277 275 275 276 278 283 283 279 276 279 279 279 281 282 283 284 285 286 287 289 289 290 290 290 289 288 286 285 284 282 281 280 279 278 278 277 276 276 276 276 276 276 277 277 277 277 277 276 276 276 276 277 278 278 278 277 276 276 275 275

ECMWFFLT1_850_thetae_009.txt.gz
Theta_e
312 312 312 312 312 312 312 312 311 311 310 310 310 310 310 309 308 308 308 308 309 309 309 308 308 309 309 309 308 307 307 308 308 307 307 307 306 305 304 303 302 300 299 298 297 296 295 294 294 294 294 294 294 294 294 294 294 294 294 294 294 294
313 312 312 312 312 311 311 311 311 310 310 310 310 310 310 309 309 308 307 307 308 309 309 309 308 308 308 308 308 308 308 308 308 308 307 307 306 305 304 303 302 301 299 298 297 297 295 294 294 293 293 293 293 293 294 294 294 294 294 294 294 294
313 313 312 312 311 312 312 311 312 311 311 311 310 310 310 310 310 309 308 308 308 309 310 310 309 308 307 306 306 307 307 308 307 307 307 306 306 305 304 304 303 301 299 298 297 297 296 295 294 293 293 293 293 293 293 294 294 294 294 294 294 294
312 312 312 312 312 312 312 312 312 312 312 312 310 310 310 310 310 310 310 309 309 310 311 311 310 308 307 306 306 307 307 308 308 307 306 306 306 305 305 304 303 301 299 298 297 297 296 295 294 293 293 293 293 293 293 293 294 293 293 294 294 294
312 312 312 312 311 312 312 312 312 312 312 312 311 311 310 310 310 310 310 309 309 310 310 310 310 309 307 307 306 307 308 308 308 307 306 306 306 305 305 304 303 301 299 298 297 296 296 295 294 293 293 293 292 293 293 293 293 293 293 293 293 293
311 311 311 311 311 311 311 312 313 312 312 313 312 312 312 311 310 309 309 308 309 309 309 309 309 309 308 307 307 307 308 308 308 307 307 306 305 305 305 304 302 301 299 298 297 296 296 295 295 293 293 292 292 292 292 293 293 293 293 293 293 293
309 309 309 309 309 310 310 311 312 312 312 313 312 313 313 312 311 310 309 309 308 308 308 308 308 308 308 308 308 308 307 308 308 308 307 306 305 305 304 303 302 301 300 299 298 297 296 295 295 294 293 292 292 292 292 293 293 293 293 293 293 293
308 308 308 307 307 307 307 309 310 311 311 312 312 312 312 311 311 311 310 309 309 308 307 308 308 308 309 309 309 308 306 306 307 307 307 306 305 305 304 303 302 301 301 300 298 297 296 295 294 294 293 292 292 292 292 292 292 292 292 292 292 292
306 306 306 307 307 307 307 307 307 308 309 310 310 310 310 310 310 310 310 310 310 309 307 307 308 308 309 309 308 308 306 305 305 306 306 306 304 303 303 302 302 301 301 299 298 297 296 295 294 294 293 292 292 291 291 292 292 292 292 292 292 291
303 303 303 304 305 306 306 306 306 307 307 307 308 309 309 310 310 310 310 310 309 309 308 307 308 308 308 307 306 306 305 305 304 305 305 304 303 303 302 301 301 300 299 298 297 296 295 295 294 293 293 292 292 291 291 291 291 291 292 291 291 291
300 301 301 301 302 303 304 304 305 306 306 307 307 308 308 308 308 309 309 309 309 309 308 307 307 307 306 305 305 305 305 305 304 304 304 303 303 302 301 300 299 298 297 296 296 295 295 294 294 293 293 293 292 291 291 291 291 291 291 291 291 291
298 299 300 300 300 300 300 301 302 303 305 306 307 308 308 307 307 308 308 308 309 309 309 308 307 306 305 305 304 304 304 304 303 303 303 303 302 301 300 299 298 297 296 296 295 295 295 294 294 293 293 292 292 291 290 290 290 290 291 291 291 290
296 297 297 297 297 297 298 299 300 301 302 304 305 306 307 306 307 308 307 307 307 308 308 307 306 306 305 305 304 304 304 304 304 303 302 302 301 300 299 298 297 296 296 295 295 295 295 294 294 293 292 292 292 291 290 290 290 290 290 290 290 289
295 295 294 294 294 295 296 297 298 299 300 302 303 304 305 306 306 306 306 306 306 306 306 305 305 305 305 305 304 303 303 303 303 302 302 301 301 300 298 298 297 296 296 295 295 295 294 294 293 293 292 292 291 290 289 289 290 290 290 290 289 289
294 294 294 294 294 294 294 295 296 297 298 300 301 302 303 304 305 305 306 305 305 304 304 304 303 303 304 304 304 303 302 302 302 302 301 301 300 299 298 297 297 296 295 295 295 294 294 293 293 292 292 292 291 290 289 289 289 289 289 289 289 288
293 293 293 293 293 294 294 294 295 295 296 298 300 300 301 302 303 304 304 304 303 303 303 303 302 302 302 302 302 301 301 301 301 300 300 299 299 298 298 297 296 296 296 295 295 294 294 293 292 292 291 291 291 290 289 288 288 288 288 288 288 288
292 292 292 292 293 293 293 294 294 294 295 296 298 299 299 299 301 302 301 301 300 301 301 301 301 301 301 300 300 300 299 299 299 299 299 298 298 298 298 297 296 296 295 295 294 294 293 293 292 291 291 291 290 289 288 288 287 288 287 287 287 287
291 291 291 291 291 292 292 293 293 293 294 294 295 298 299 299 298 299 299 299 299 298 299 299 299 299 299 298 298 298 298 298 298 298 298 298 297 297 296 296 296 295 295 295 294 294 293 292 292 291 290 290 289 289 288 287 287 287 287 287 287 286
290 290 290 290 290 291 291 291 292 293 293 293 294 295 297 298 298 298 298 298 298 298 297 298 298 298 298 297 297 297 298 298 297 297 297 297 297 296 296 296 295 295 295 295 294 293 292 292 291 291 290 289 288 288 287 287 287 286 286 286 286 286
289 289 289 289 290 290 290 290 291 292 292 293 293 294 295 297 298 298 297 297 297 297 297 297 297 297 297 297 297 297 297 297 297 297 297 297 297 297 296 296 295 295 295 294 294 293 292 292 291 290 290 289 287 287 287 286 286 286 286 286 286 286
289 289 289 289 289 289 289 290 290 291 291 292 293 293 294 295 296 297 297 297 297 296 296 296 296 297 296 296 296 296 296 296 296 296 296 296 296 296 296 295 295 295 295 294 293 293 292 292 291 290 289 288 287 286 286 286 286 286 286 286 286 286
288 288 288 288 288 288 289 289 290 290 290 291 292 292 294 294 295 295 296 297 297 296 296 296 296 296 296 295 295 295 295 295 294 294 295 295 295 295 295 294 294 294 294 293 293 292 291 291 290 289 289 287 286 286 286 285 286 286 286 286 286 286
286 287 287 287 287 287 288 288 289 289 290 290 290 291 293 294 294 294 295 296 297 297 296 296 295 295 295 295 294 294 294 294 293 293 294 294 294 294 293 293 294 293 293 293 293 292 291 290 289 289 288 286 285 285 285 285 285 286 286 286 286 286
285 285 286 286 286 286 286 287 288 289 289 290 290 290 291 292 293 294 295 295 296 297 297 296 295 295 295 294 293 293 293 293 293 293 292 292 293 293 293 293 293 292 292 292 291 291 290 289 289 288 287 285 284 284 284 285 285 286 286 286 286 286
285 285 285 285 285 285 285 286 286 287 288 289 289 289 290 291 292 293 294 295 295 296 296 296 295 294 294 294 294 293 292 292 292 292 291 291 291 291 292 292 292 291 291 291 290 290 289 288 287 287 286 285 284 284 284 284 285 285 285 285 285 286
284 284 285 285 285 285 285 285 285 286 287 287 288 289 289 290 290 291 293 294 294 295 295 295 296 295 294 294 293 293 292 291 291 291 291 291 291 290 291 291 290 290 291 290 290 289 288 288 287 286 284 284 283 283 283 284 284 285 285 285 285 286
283 284 284 284 284 284 285 285 285 285 286 286 287 287 288 289 289 290 291 292 294 294 295 295 295 296 296 294 293 292 292 292 291 291 291 291 291 290 290 290 290 290 290 290 289 289 288 288 287 285 283 282 283 283 283 283 284 284 285 284 284 284
283 284 284 284 284 284 284 285 285 285 285 286 286 286 287 287 288 289 290 291 292 293 294 295 295 296 296 296 294 292 291 291 291 291 290 290 290 290 290 290 290 290 289 289 289 288 288 287 286 285 284 282 282 283 282 282 283 283 284 283 283 282
281 282 283 284 284 284 284 284 284 285 285 285 285 285 286 287 287 288 288 289 290 291 293 295 296 296 296 296 295 294 292 291 291 290 290 290 290 290 290 290 290 290 289 289 289 289 288 287 286 286 284 282 281 282 282 282 282 282 282 281 281 280
280 280 281 283 284 284 283 284 284 284 285 285 285 285 285 286 286 287 287 288 289 290 292 293 295 296 296 296 296 295 294 293 292 291 290 290 290 290 290 290 291 291 290 290 289 289 287 287 287 286 286 284 282 281 281 281 281 280 280 280 279 279
280 279 279 281 283 283 283 283 284 284 284 284 284 284 284 285 286 286 287 288 288 289 290 292 294 295 295 295 295 295 295 295 293 292 291 290 289 289 289 289 290 290 290 289 289 289 289 288 289 288 286 285 283 282 281 281 280 280 280 281 281 281
278 277 278 280 281 281 281 282 283 284 284 283 283 282 283 284 285 285 286 287 288 288 288 290 292 294 294 294 294 294 294 294 293 292 291 289 289 288 287 287 287 288 288 288 288 288 289 289 290 289 286 284 282 282 281 281 280 281 281 282 282 282
276 275 277 279 279 278 279 280 282 284 283 281 281 281 281 282 282 283 285 286 287 287 286 286 289 292 293 293 293 292 292 292 292 291 291 289 288 288 287 286 286 286 286 286 286 286 286 286 286 286 285 283 282 281 280 280 280 281 281 282 282 281
275 275 276 277 277 277 278 279 281 283 281 278 278 279 279 280 280 281 283 285 285 285 284 283 285 288 290 291 291 290 290 291 290 291 290 289 288 287 286 286 285 285 284 284 284 284 285 284 284 284 283 282 281 280 280 279 280 280 280 281 281 280
273 274 275 275 275 276 276 278 281 282 277 274 275 276 277 279 279 279 281 283 282 282 281 281 282 284 286 288 289 288 288 289 290 290 290 288 287 286 285 284 284 283 283 283 283 283 283 283 283 283 283 281 280 279 279 279 279 279 279 280 280 279
271 272 273 273 272 274 275 277 280 279 275 272 273 274 275 277 277 277 278 279 279 278 279 279 280 281 283 285 286 286 287 287 288 289 288 287 286 284 283 283 282 282 281 281 281 282 282 282 282 282 282 280 279 279 278 278 279 278 278 279 279 279
269 271 271 271 270 271 273 275 277 275 272 271 272 272 272 273 273 273 276 277 277 277 277 279 280 281 282 283 284 284 285 286 286 287 286 286 285 284 283 283 282 281 280 280 279 280 280 281 281 281 280 279 279 278 278 278 278 277 276 277 278 278
268 269 269 268 268 269 270 272 272 270 269 269 269 269 269 271 271 273 275 277 277 277 277 278 279 280 281 282 283 283 284 284 285 285 285 285 284 283 282 282 281 281 280 279 279 278 279 279 280 279 279 278 278 278 278 278 277 277 277 278 278 278

ECMWFFLT1_850_thetae_012.txt.gz
Theta_e
310 310 310 310 310 310 310 310 310 310 310 310 310 310 310 309 309 309 309 309 308 308 307 307 307 307 307 307 307 306 305 305 305 305 306 306 306 305 305 304 304 303 303 303 302 302 302 301 299 298 297 295 294 294 294 294 294 294 294 294 294 295
309 309 309 309 308 307 307 307 307 307 307 307 307 307 308 308 308 309 309 309 308 308 307 307 307 306 306 306 306 306 306 305 305 305 305 305 305 305 305 305 304 304 303 303 302 302 302 301 300 299 297 295 294 294 293 293 293 293 294 294 294 294
308 308 308 308 307 307 306 306 306 306 306 306 306 306 306 305 306 307 307 307 307 307 307 307 307 306 306 305 305 306 306 306 305 304 304 304 304 305 305 305 304 304 303 303 302 302 302 301 300 299 298 296 295 294 293 293 293 293 293 294 294 294
306 307 307 307 307 307 307 306 306 306 306 306 306 306 305 304 304 304 305 305 305 305 306 306 306 306 305 305 305 305 305 305 305 305 304 304 304 304 304 304 304 304 303 303 302 302 302 301 301 300 298 297 296 294 293 293 293 293 293 293 293 294
304 305 305 305 305 305 305 305 305 304 304 305 305 305 305 304 304 303 303 304 304 304 304 304 304 304 305 305 305 305 306 306 305 305 305 304 304 303 303 304 304 304 303 302 302 302 301 301 301 300 299 298 297 296 294 293 293 293 293 293 293 293
302 302 303 303 302 302 301 301 302 302 302 303 303 304 304 304 304 304 304 304 304 304 304 304 304 303 304 305 305 306 306 306 306 305 305 304 304 304 303 303 303 303 303 302 302 301 301 301 301 300 299 298 297 296 295 294 293 293 293 293 293 293
300 299 299 299 299 299 298 298 299 299 299 300 300 301 302 303 304 304 305 304 304 304 304 304 304 303 304 304 305 306 306 306 305 305 305 304 304 304 304 304 303 303 303 303 303 302 301 301 301 300 300 299 298 297 296 295 294 293 293 293 292 293
297 298 297 297 297 297 297 297 296 296 297 297 298 298 299 301 302 303 304 304 305 305 304 303 303 303 304 304 304 305 305 305 304 304 304 304 303 303 303 303 303 304 304 304 303 303 301 300 300 300 300 299 298 297 296 295 294 293 293 292 292 292
294 295 295 295 296 296 296 296 296 296 295 295 296 296 297 299 300 301 302 303 304 305 304 303 302 302 303 303 303 303 304 304 303 303 303 303 302 303 303 303 303 304 304 304 304 303 301 300 299 299 299 298 298 297 297 296 295 294 293 292 292 292
292 292 293 293 294 294 294 295 295 295 295 295 295 295 296 296 297 299 300 301 302 303 303 302 301 301 301 302 302 302 302 302 302 302 302 301 301 302 302 303 302 302 303 304 304 303 302 300 299 298 298 298 298 298 297 297 296 295 293 292 292 292
291 291 291 291 292 293 293 293 294 294 294 295 295 295 295 295 295 296 298 299 300 300 301 301 300 300 300 300 301 301 301 301 302 301 300 300 300 300 301 302 301 300 300 301 302 302 302 301 300 300 299 298 298 298 297 297 296 295 294 293 292 292
291 290 290 290 291 291 291 292 292 292 292 293 293 294 294 295 295 295 296 297 298 298 299 299 298 298 298 298 299 300 300 300 300 300 299 299 299 299 299 299 299 299 299 299 299 300 301 301 301 300 299 298 297 297 297 296 296 295 294 293 292 291
290 290 290 290 290 290 290 290 291 291 292 292 292 292 293 293 294 294 294 295 296 297 298 298 297 297 296 297 297 298 298 299 299 299 299 298 298 298 298 297 298 298 298 297 297 298 299 301 301 300 298 297 296 296 296 296 295 295 294 293 292 291
289 289 289 290 290 290 290 290 290 291 291 291 291 292 292 292 293 293 294 294 295 296 297 298 298 297 296 295 295 296 296 297 297 297 297 297 297 297 297 297 297 297 297 296 296 297 297 298 299 298 298 297 296 295 295 295 295 294 294 293 292 291
289 289 289 289 289 290 290 290 290 290 290 291 291 291 291 292 292 292 293 293 294 295 295 296 297 297 297 295 294 294 295 295 295 296 296 296 296 296 296 296 295 295 295 295 295 296 296 296 296 296 296 295 295 295 294 294 294 294 293 293 292 291
289 289 289 289 289 289 289 290 290 290 290 290 290 290 291 291 291 292 292 292 293 294 294 295 296 297 297 296 294 294 294 294 294 295 295 295 295 295 295 295 295 294 295 295 295 295 295 295 295 295 295 294 294 294 294 293 293 293 293 292 292 291
288 288 288 288 288 288 288 289 289 289 289 290 290 290 290 290 291 291 291 292 292 293 293 294 294 295 296 296 295 294 293 293 293 294 294 294 294 294 295 294 294 294 294 294 294 294 294 294 294 294 294 294 293 293 293 293 292 292 292 292 291 290
287 287 286 286 286 286 286 286 286 287 288 288 289 289 289 290 290 290 291 291 292 292 292 293 293 294 295 296 296 295 294 293 293 293 293 293 294 294 293 293 293 293 294 294 294 294 294 294 293 293 293 293 293 293 292 292 292 291 291 291 290 289
287 286 286 286 286 285 285 285 285 285 286 286 287 288 288 289 289 289 290 290 291 291 292 292 293 293 294 295 295 295 294 293 292 292 292 292 293 293 293 293 293 293 293 293 293 294 293 293 293 292 292 292 292 292 291 291 291 291 290 290 290 289
286 285 285 285 285 285 285 285 285 285 285 285 285 286 287 287 287 288 288 288 289 290 291 291 291 292 293 294 295 295 295 294 292 292 291 291 292 292 292 292 292 292 292 293 293 293 293 293 293 292 292 292 291 291 291 291 291 290 290 289 289 288
286 285 285 285 285 285 285 285 285 285 284 284 285 285 285 285 286 286 286 287 288 289 290 291 291 291 292 293 294 294 294 294 293 292 291 291 291 291 291 291 291 291 291 292 292 292 292 292 292 291 291 291 291 290 290 290 290 290 290 289 288 288
285 285 285 285 285 285 285 285 285 285 285 284 284 284 284 285 285 285 285 285 286 287 288 290 290 290 291 292 293 294 294 294 294 293 292 291 290 290 290 290 290 290 291 291 291 291 291 291 291 290 290 290 290 290 290 290 290 290 289 289 288 287
285 285 285 285 285 285 285 285 285 285 285 285 285 284 284 284 284 284 285 285 285 286 286 288 289 290 290 291 292 293 294 294 294 294 292 291 290 290 290 290 290 290 290 290 290 290 290 290 290 290 289 289 289 289 289 289 289 289 289 289 288 287
285 285 285 285 285 285 284 284 285 285 285 285 285 284 284 284 284 284 284 284 285 285 285 286 287 289 290 290 290 291 293 294 294 294 293 291 290 289 289 289 289 289 289 289 289 289 289 289 289 289 288 288 288 288 288 289 289 289 289 289 288 287
285 284 284 285 285 284 284 284 285 285 285 285 284 284 284 284 284 284 284 284 284 284 285 285 286 287 288 289 289 290 291 293 294 294 294 292 291 290 289 288 288 288 288 288 288 289 288 288 288 288 288 287 287 287 287 288 288 288 289 288 288 287
284 284 284 284 284 284 284 284 284 284 285 285 284 283 284 284 284 284 284 284 284 284 284 285 285 286 286 288 288 289 290 291 293 294 294 293 291 290 289 288 288 288 288 288 288 288 288 288 288 288 287 287 286 286 286 286 287 287 287 287 286 286
283 283 284 284 284 284 284 284 283 283 284 284 283 283 283 283 283 284 284 284 284 284 284 284 284 285 285 286 287 288 289 290 292 294 295 294 292 291 289 289 288 287 287 287 288 288 288 288 288 288 288 287 286 286 286 285 286 285 286 286 285 285
283 283 283 283 284 284 284 284 283 282 283 283 282 282 282 282 283 283 283 284 284 284 284 284 284 285 285 286 286 287 288 289 290 292 294 294 294 292 290 289 288 288 287 287 287 288 288 288 288 288 287 287 286 286 285 285 285 285 285 285 284 284
282 283 283 283 284 284 284 283 283 283 283 282 281 281 281 281 282 282 283 283 283 284 284 284 284 284 285 285 286 286 287 288 289 290 292 294 294 294 292 291 289 288 288 288 288 288 288 287 287 286 286 286 286 285 285 285 284 284 284 284 284 283
281 281 281 282 283 283 283 282 283 282 282 281 280 279 278 280 281 281 282 283 283 283 283 283 284 284 284 285 285 285 286 287 288 289 291 292 293 293 293 292 291 290 289 289 288 288 288 287 287 287 287 287 286 285 284 284 284 283 283 284 284 283
280 279 279 281 282 281 281 281 281 281 279 278 277 276 275 278 279 280 281 282 282 282 282 282 282 283 283 283 284 284 285 286 287 287 289 291 291 291 291 291 291 290 290 289 288 288 288 288 289 289 289 288 287 285 284 284 284 283 283 283 283 283
278 276 277 278 279 278 278 279 280 280 278 275 273 272 272 274 276 277 280 281 281 281 281 280 280 281 281 281 281 282 283 285 286 286 287 288 290 290 289 289 290 289 289 288 288 288 288 288 288 288 288 287 286 284 283 283 284 284 283 282 282 283
275 274 274 275 275 274 275 276 277 278 276 273 270 269 270 271 272 274 277 278 278 278 278 278 279 279 279 280 280 280 281 283 284 285 286 286 287 288 288 288 289 288 288 287 287 287 287 287 287 286 286 286 285 284 283 283 283 284 283 282 282 282
273 272 272 272 272 272 272 273 275 275 272 270 268 267 269 270 269 270 273 275 275 275 275 276 276 276 277 278 278 278 278 279 281 283 284 284 285 286 287 288 288 287 287 286 286 286 286 286 286 286 286 286 285 284 283 282 283 283 282 281 281 282
270 270 270 269 269 270 270 271 272 272 269 267 266 266 267 269 268 268 270 271 271 272 272 272 273 273 274 275 275 276 277 278 279 280 282 282 283 284 285 286 286 285 285 285 285 285 285 285 285 285 285 285 285 284 283 282 282 282 282 281 281 281
268 268 268 267 267 267 268 268 269 268 266 265 266 265 266 266 266 267 268 268 269 269 269 269 270 271 271 272 273 274 275 277 278 279 280 280 281 282 283 283 284 284 283 283 283 283 283 284 284 283 283 284 284 283 283 282 282 282 281 281 280 280
265 265 265 265 264 264 265 266 266 265 264 264 265 264 264 264 264 264 265 266 266 267 267 268 268 268 269 270 272 274 275 276 278 279 279 280 281 281 282 282 283 283 283 283 282 282 282 282 282 282 282 282 283 283 282 282 282 281 280 280 280 280
263 263 263 263 263 263 263 263 264 263 263 263 263 263 263 263 263 263 263 264 265 265 266 266 267 268 270 272 273 275 276 277 278 279 279 280 281 281 281 282 282 283 283 282 282 281 281 280 280 280 281 281 282 282 282 282 281 281 280 279 279 279

ECMWFFLT1_850_thetae_015.txt.gz
Theta_e
299 299 299 300 300 301 302 302 303 303 303 303 304 304 304 304 304 304 304 304 304 302 301 300 300 300 301 302 302 302 302 303 303 303 303 303 303 303 304 304 304 304 303 303 303 303 303 302 302 301 300 300 299 298 297 296 295 295 295 295 295 295
297 297 298 299 299 300 300 301 302 302 302 303 303 303 304 304 304 304 304 303 303 303 303 301 300 299 299 300 300 301 302 302 303 303 303 303 303 303 303 303 304 304 303 303 303 303 303 302 302 302 301 300 299 299 298 296 295 294 294 294 294 294
297 297 297 298 298 298 298 298 299 300 300 301 301 302 302 303 303 304 304 303 303 303 303 303 302 301 300 299 298 299 300 300 301 302 302 302 303 303 303 303 303 303 303 303 303 302 302 302 302 302 301 300 300 299 298 297 296 295 294 294 294 294
297 297 297 297 297 297 296 296 296 296 297 298 298 299 300 300 301 301 302 302 302 303 303 303 303 303 302 300 299 298 298 299 299 300 301 301 301 302 302 302 302 302 303 303 303 303 302 302 302 302 301 301 300 299 298 298 296 295 294 294 294 294
295 296 296 296 296 296 295 295 294 294 294 295 296 297 297 297 298 299 300 301 301 301 302 302 303 303 303 302 301 300 299 298 298 298 299 299 300 300 300 301 301 301 302 302 302 303 302 302 302 301 301 301 301 300 299 298 298 296 295 295 295 294
295 294 295 294 294 294 294 294 294 294 294 294 294 295 295 296 296 297 298 298 299 299 300 301 301 301 302 302 302 301 300 298 298 298 298 298 298 299 299 300 300 300 300 301 301 302 302 302 302 302 301 301 300 300 300 299 299 298 297 296 295 295
294 294 293 293 293 293 293 293 294 294 294 294 293 293 294 294 295 296 296 296 297 297 298 299 300 300 300 301 301 301 301 300 299 298 298 297 297 298 298 299 299 299 299 300 300 301 301 302 302 302 302 301 301 300 299 299 299 298 298 297 296 295
293 293 293 293 293 293 293 293 293 293 293 293 292 292 292 292 293 294 294 295 296 296 296 297 298 298 299 300 300 300 300 300 300 299 298 297 297 297 297 297 298 298 299 299 299 299 300 300 301 301 301 301 301 300 300 299 299 298 298 297 297 296
291 291 291 291 291 291 291 291 292 292 292 291 291 291 291 291 292 292 293 293 294 295 295 296 296 296 297 299 299 300 300 300 300 299 299 298 297 297 296 296 296 297 298 298 298 298 298 299 299 299 300 300 300 300 300 299 299 298 298 298 297 296
289 289 290 290 290 290 290 290 290 290 290 290 290 290 290 291 291 291 291 292 292 293 294 295 295 295 296 297 298 299 299 299 299 299 299 298 297 296 295 295 295 296 296 297 297 297 297 297 298 298 299 299 299 299 299 299 299 298 298 298 297 296
289 289 289 289 289 289 290 290 290 290 290 290 290 290 290 290 290 290 290 290 291 291 292 293 294 295 295 296 297 298 298 299 299 299 298 298 298 296 295 294 294 294 295 295 295 296 296 296 297 297 298 298 298 298 298 298 298 298 298 298 297 296
288 288 288 288 288 288 289 289 289 289 289 289 289 289 289 289 289 289 289 290 290 290 290 291 292 293 294 295 296 297 297 298 298 298 298 298 297 297 295 294 293 293 294 294 294 295 295 295 296 296 297 297 297 297 297 298 298 298 297 297 297 296
288 288 288 288 288 288 288 288 288 288 288 289 289 289 289 289 288 288 288 288 288 289 289 290 290 291 291 292 294 295 296 296 297 297 297 297 297 297 295 294 293 293 293 293 293 294 294 295 295 295 295 296 296 296 296 296 297 297 297 296 296 296
288 288 288 288 288 288 288 287 287 287 287 287 288 288 288 288 288 288 287 287 287 287 288 288 289 289 290 291 291 292 293 294 295 296 296 297 297 296 296 295 293 292 292 292 292 293 293 294 294 294 294 295 295 295 295 295 295 296 296 296 295 295
287 287 287 287 287 287 287 287 287 286 286 286 286 286 286 287 287 287 287 287 286 286 286 287 288 288 289 289 290 291 291 292 293 294 295 296 296 296 296 295 294 293 292 292 292 292 292 293 293 294 294 294 294 294 294 294 294 295 295 296 295 295
287 287 287 287 287 287 287 287 286 286 286 286 286 286 285 285 285 285 286 286 286 285 285 285 286 287 287 288 289 289 290 291 292 292 293 294 295 296 296 295 294 293 292 291 291 291 292 292 292 293 293 293 293 293 293 293 294 294 295 295 295 295
287 287 287 287 287 287 287 286 286 286 286 286 286 285 285 285 285 285 285 285 285 285 285 285 285 285 286 286 287 287 288 289 290 291 292 293 294 295 295 295 294 294 293 292 291 291 291 291 291 292 292 292 292 292 292 292 293 293 293 294 294 294
287 287 287 287 287 286 286 286 286 286 286 286 285 285 285 285 285 285 285 285 285 285 285 285 285 285 285 285 285 286 286 287 288 289 291 291 292 293 294 295 294 293 293 292 291 290 290 290 290 291 291 291 291 291 291 291 292 292 292 293 293 293
287 287 287 286 286 286 286 286 286 285 285 285 285 285 285 285 285 285 285 285 285 285 285 285 285 285 285 285 285 285 285 285 286 287 288 289 291 292 293 294 295 294 293 292 291 291 290 290 290 290 290 290 290 290 290 290 291 291 292 292 292 292
287 287 286 286 286 286 286 285 285 285 285 285 285 285 285 285 285 285 285 285 285 285 285 285 285 285 285 285 285 285 285 284 285 285 286 287 289 290 292 293 294 294 293 292 291 291 290 290 289 289 289 289 289 289 289 289 290 290 291 291 291 291
287 287 287 286 286 286 285 285 285 284 284 285 284 284 284 284 284 284 284 284 285 285 285 285 285 284 285 285 285 285 284 284 285 285 285 285 286 288 290 291 293 294 294 293 291 290 290 290 289 288 288 288 288 289 289 289 289 290 290 290 290 290
287 286 286 286 286 286 285 285 285 284 284 284 284 284 284 284 284 284 284 284 284 284 285 285 284 284 285 285 284 284 284 284 284 284 284 285 285 286 288 289 291 293 294 294 292 290 290 290 289 288 288 287 288 288 288 288 288 289 289 289 289 289
286 286 286 286 286 285 285 284 284 284 284 284 284 284 284 283 283 283 283 284 284 284 284 284 284 285 285 285 285 285 284 284 284 284 284 284 284 285 286 288 289 291 293 294 293 291 290 290 290 289 288 287 287 287 287 287 288 288 288 288 288 289
286 286 286 286 285 285 284 284 283 283 283 283 283 283 283 282 282 283 283 283 284 284 284 284 284 284 285 285 285 285 285 284 284 284 284 284 284 284 285 286 288 289 291 293 294 292 290 289 289 289 288 287 287 286 286 286 287 287 287 287 288 288
285 285 285 285 285 284 284 283 283 283 283 283 283 283 282 282 282 282 282 283 284 284 284 284 284 284 284 284 284 284 285 285 285 284 284 284 284 284 284 285 286 288 289 291 293 293 292 290 289 289 288 288 287 286 286 286 286 286 287 287 287 288
284 284 284 284 284 284 283 282 282 282 282 283 282 282 281 281 281 281 282 283 283 283 283 284 284 284 284 284 284 284 284 285 285 285 284 284 284 284 284 284 285 286 288 290 291 293 294 292 289 288 288 288 287 286 286 286 286 286 286 286 287 287
283 283 283 283 283 283 282 282 281 281 282 282 281 280 280 280 280 280 281 282 282 282 282 282 283 283 283 283 284 283 284 284 285 285 284 284 284 284 284 284 285 285 287 289 290 291 293 293 290 288 288 288 288 286 285 285 286 286 286 286 286 286
282 282 282 282 282 282 282 281 280 280 280 280 279 278 277 277 277 279 280 281 281 281 280 280 281 282 283 283 283 282 282 283 283 284 284 284 283 283 283 284 284 285 286 287 289 290 292 293 292 290 288 287 287 287 286 285 285 286 286 286 286 286
281 281 281 281 282 282 281 280 279 278 277 276 275 274 274 274 274 275 277 279 279 279 279 278 278 279 280 281 281 281 281 281 281 281 282 283 283 283 283 283 283 284 284 286 287 289 291 292 292 291 289 287 287 287 287 286 285 285 285 286 286 285
279 279 278 279 281 280 279 278 277 276 274 273 272 271 271 272 272 272 273 275 276 276 276 276 275 276 276 277 278 278 279 280 279 279 280 281 282 282 282 282 282 283 284 285 286 288 289 291 292 291 291 289 288 287 287 286 285 285 285 285 285 285
277 276 275 276 277 276 276 276 275 273 271 270 269 269 269 270 271 270 271 272 272 273 273 273 273 273 273 273 274 276 277 278 277 277 279 280 281 281 281 281 281 282 283 283 284 286 287 290 292 292 291 290 288 287 287 286 286 285 285 285 285 285
274 273 272 273 273 272 272 273 272 271 269 267 267 267 267 267 268 268 269 270 269 269 270 269 270 270 270 270 271 272 274 276 276 276 277 279 280 280 279 280 281 282 282 282 283 285 286 288 290 291 289 288 287 286 286 286 285 285 285 284 284 284
273 271 271 271 270 270 270 270 269 268 267 265 265 265 265 265 265 266 267 266 266 266 266 266 266 267 267 267 268 269 270 273 275 276 276 277 279 279 279 279 280 281 281 282 283 284 285 286 287 288 288 287 286 285 285 284 284 284 284 284 284 284
271 270 268 268 267 267 267 266 266 265 264 264 264 263 263 263 263 263 264 264 263 263 263 263 263 263 264 265 266 267 268 270 272 274 275 276 277 278 278 279 280 280 281 282 282 283 284 285 286 287 287 287 286 285 284 284 283 283 283 284 284 283
267 266 265 264 264 264 263 263 263 263 262 262 262 262 262 262 262 262 262 262 262 262 262 262 262 262 263 264 265 267 268 270 271 272 273 274 276 277 277 278 279 280 281 282 282 282 283 283 284 285 286 286 286 285 284 283 283 283 283 283 283 283
264 263 263 262 262 262 262 261 261 262 261 261 262 262 262 262 262 262 262 262 262 262 262 262 262 263 263 264 266 267 267 268 269 269 270 272 273 274 275 276 277 279 280 281 282 282 282 283 283 284 285 285 285 285 285 283 283 283 283 283 283 282
263 262 262 262 261 261 261 261 261 261 261 261 261 261 261 262 262 262 262 261 261 262 262 262 262 262 263 263 264 265 265 266 266 267 268 269 271 272 274 275 276 277 279 280 281 282 282 282 282 282 283 283 283 284 284 283 283 283 283 283 282 282
263 262 262 262 261 261 261 261 261 261 261 261 261 261 261 261 261 261 261 261 261 261 261 261 261 262 262 262 262 263 264 265 266 268 269 270 271 273 275 276 277 277 278 279 281 281 282 282 282 282 282 282 282 283 283 282 282 283 283 282 282 282

ECMWFFLT1_850_thetae_021.txt.gz
Theta_e
296 296 296 296 296 296 297 297 297 297 296 296 296 296 295 295 295 295 295 294 294 294 294 295 295 296 297 298 298 299 299 299 299 300 301 301 301 301 301 301 300 299 299 299 299 299 298 298 297 297 297 298 298 298 298 298 297 296 296 296 296 296
294 295 295 295 295 295 295 295 296 296 296 295 295 294 294 294 294 294 294 294 294 293 293 293 294 294 295 295 296 297 298 298 298 299 299 299 300 300 301 301 301 300 300 299 299 299 299 299 298 298 297 297 297 297 297 298 298 297 297 297 296 296
294 294 294 294 294 294 294 293 293 293 293 293 293 293 293 293 293 293 293 293 293 293 292 292 292 292 292 293 293 294 295 296 297 298 298 299 299 299 300 300 300 301 300 300 300 299 299 299 299 298 298 297 297 296 297 297 297 297 298 297 297 296
294 294 294 293 293 292 292 292 291 291 291 291 292 292 292 292 291 291 291 291 291 291 291 291 291 291 291 291 292 292 293 293 294 296 297 298 298 298 298 299 300 300 300 300 300 300 299 299 299 298 298 298 297 297 296 296 296 296 297 298 298 297
293 293 292 291 291 291 291 290 290 290 290 290 290 291 291 291 291 290 290 290 290 290 290 290 290 290 290 290 290 291 291 291 292 292 293 294 296 297 297 298 298 299 299 300 300 300 300 299 299 298 298 297 297 297 297 296 296 296 296 296 297 297
292 291 291 290 290 290 290 290 290 290 290 290 290 290 290 290 290 290 290 290 289 289 289 289 289 289 289 289 289 289 289 289 289 290 290 291 292 293 295 296 297 297 298 298 299 299 300 299 299 298 297 297 296 296 296 296 296 296 295 295 296 296
291 290 290 290 289 289 289 289 289 289 289 289 289 289 289 289 289 289 289 289 289 289 289 289 288 288 288 288 288 288 288 288 288 288 288 289 289 290 291 292 294 295 296 297 298 298 299 299 298 298 298 297 297 296 295 295 295 295 296 295 295 295
290 290 290 289 289 289 289 289 288 288 288 288 288 288 288 288 288 288 288 288 288 288 288 288 288 288 288 287 287 287 287 287 287 287 287 287 287 288 288 289 290 291 293 294 295 296 297 297 297 297 297 297 297 296 295 294 294 294 295 295 295 295
289 289 289 289 289 288 288 288 288 288 288 288 288 288 288 288 288 288 288 288 288 288 288 288 288 288 288 288 287 287 287 287 287 286 286 286 286 286 286 287 287 288 289 290 292 293 295 296 296 296 296 296 297 297 296 295 294 294 294 295 295 295
290 289 289 288 288 288 288 288 288 288 288 287 287 287 287 287 287 287 287 287 287 287 287 287 287 287 288 287 287 287 287 287 287 286 286 286 286 286 286 286 286 286 287 287 288 289 291 293 295 295 295 295 296 296 296 295 295 294 294 294 294 294
291 290 290 289 289 288 288 288 287 287 287 287 287 287 287 287 287 287 287 287 287 287 287 287 287 287 287 287 287 287 287 287 287 287 287 286 286 286 286 286 286 286 286 286 286 286 287 288 290 292 293 294 294 295 295 296 295 294 293 293 294 294
291 290 290 290 290 289 289 289 288 287 287 287 287 287 287 287 287 287 287 287 287 287 286 286 286 286 286 287 287 287 287 287 287 287 287 287 287 286 286 286 286 286 286 286 286 286 286 286 286 287 289 291 293 293 294 295 295 295 294 293 293 294
290 290 290 290 290 290 289 289 288 288 287 287 287 287 287 287 287 287 287 287 286 287 286 286 286 286 286 286 286 286 286 286 286 286 287 287 287 287 286 286 286 286 286 286 286 286 286 286 286 285 286 287 288 291 292 294 294 294 294 294 294 293
290 290 290 290 290 290 289 289 288 288 288 287 287 287 287 287 287 286 287 287 286 286 286 286 286 286 286 286 286 286 286 286 286 286 286 286 286 286 286 286 286 286 286 286 286 286 286 286 286 286 285 285 285 287 289 291 293 293 294 294 294 294
290 290 290 290 290 290 289 289 288 288 288 287 287 287 286 287 287 287 286 286 286 286 286 286 286 286 286 286 286 286 286 286 286 286 286 286 286 286 286 286 286 286 286 286 286 286 286 286 286 286 286 285 285 285 285 287 290 292 293 293 294 294
290 290 290 290 290 290 289 288 288 288 287 287 286 286 286 286 286 286 286 286 286 286 286 285 285 285 286 286 286 286 286 286 286 286 286 286 286 286 286 286 286 286 286 286 286 286 286 286 286 286 286 285 285 285 285 285 286 288 291 292 293 293
290 290 290 290 289 289 289 288 287 287 287 286 286 285 285 286 286 286 286 286 286 285 285 284 284 284 285 285 285 285 285 285 285 285 285 285 285 286 286 286 286 286 286 286 286 286 286 286 286 286 286 286 285 285 285 285 285 285 287 289 292 292
290 290 289 289 289 289 288 287 287 286 286 285 285 285 285 285 285 285 285 285 285 284 284 284 283 283 283 284 284 284 284 284 284 285 285 284 284 285 285 285 286 286 286 286 286 286 286 286 286 286 286 286 285 285 285 285 285 285 285 286 288 291
290 290 289 289 289 288 287 287 286 286 286 286 286 286 285 285 284 284 283 283 283 282 282 282 282 281 281 282 282 283 283 283 283 284 284 284 283 284 285 285 285 285 285 286 286 286 286 286 286 286 286 286 285 285 285 286 286 285 285 284 285 288
290 290 289 289 288 288 287 286 286 286 286 286 286 286 285 284 283 282 281 281 281 281 280 280 280 280 280 280 280 280 281 281 282 282 283 283 282 283 284 284 284 285 285 285 285 286 286 286 286 286 285 286 285 285 285 285 285 285 285 285 284 285
290 290 289 289 288 288 287 287 287 286 286 286 286 285 284 283 282 281 281 280 280 279 279 279 279 278 278 278 278 278 277 278 278 279 279 280 280 280 282 283 284 284 284 284 285 285 285 285 285 286 285 285 285 285 285 285 285 285 285 285 285 284
289 289 289 289 288 287 287 287 287 286 286 285 284 283 283 282 281 281 280 280 279 278 278 277 277 276 276 276 276 276 276 275 275 276 276 276 276 277 278 280 282 282 283 284 284 284 284 285 285 285 285 285 285 285 285 285 285 285 285 285 285 285
289 288 288 288 287 287 287 287 286 285 284 284 283 282 282 281 280 280 279 279 278 278 277 276 275 275 275 275 274 274 274 274 274 274 274 274 274 274 274 276 277 279 281 283 283 283 284 284 284 285 285 285 285 285 285 284 284 285 285 285 285 285
288 288 288 287 286 286 286 285 284 283 283 282 282 281 280 280 279 279 278 278 278 278 277 277 276 275 275 274 274 273 273 273 273 272 272 272 272 272 273 273 274 274 277 280 281 282 283 283 283 284 284 285 284 284 284 284 284 284 284 284 284 284
287 287 287 286 285 284 284 283 283 282 282 281 280 279 279 278 278 278 278 278 278 278 278 277 277 276 275 274 273 271 271 271 270 270 270 270 270 270 270 271 271 271 272 275 278 280 281 282 282 283 284 284 284 284 284 284 284 284 284 284 284 284
286 286 285 284 283 283 282 282 281 281 281 280 279 278 278 277 277 277 278 278 278 278 277 277 277 276 274 273 271 269 269 268 268 268 268 268 268 268 268 269 269 269 270 271 274 276 279 280 280 281 282 283 283 283 283 283 283 284 284 283 283 284
285 284 283 283 282 282 282 281 280 280 279 279 278 277 277 277 277 277 277 277 277 277 276 276 275 274 272 271 269 268 267 266 266 266 266 266 267 267 267 268 268 268 269 270 271 273 275 277 278 279 280 281 282 283 283 283 283 283 283 283 283 284
283 282 282 282 282 281 280 279 278 278 278 277 277 276 276 276 276 276 276 276 275 275 274 273 272 272 270 269 267 265 265 264 264 264 265 265 266 266 267 267 268 268 269 269 270 272 273 275 276 277 278 279 280 281 282 282 282 282 282 282 283 283
282 282 282 282 281 280 279 278 277 277 276 276 276 276 276 275 275 275 275 274 273 272 271 270 270 269 268 266 265 264 264 263 264 264 264 264 265 265 266 266 267 268 268 269 270 271 272 273 274 276 277 278 279 280 281 282 282 282 281 282 282 283
281 281 281 281 280 279 278 277 277 276 276 275 275 275 275 274 273 273 272 271 270 269 269 268 268 266 265 264 264 263 263 263 263 263 263 264 264 264 265 265 266 266 267 268 269 269 270 271 272 273 275 276 278 280 281 282 282 282 281 281 282 282
281 280 280 279 279 278 277 277 276 276 275 275 274 274 273 273 272 271 270 269 268 268 267 266 265 263 263 263 263 263 263 263 263 263 263 263 264 264 264 265 265 265 266 266 267 268 269 270 271 272 274 276 278 279 281 281 282 282 281 281 281 282
280 279 279 278 277 277 276 276 276 275 274 274 273 273 272 272 270 269 268 267 267 267 265 263 262 263 263 263 263 263 263 263 263 263 264 264 264 264 265 265 266 266 267 267 267 268 268 269 270 271 273 274 276 278 279 281 281 282 282 282 282 282
279 278 278 277 276 276 276 276 275 275 274 273 273 272 271 270 268 268 267 266 265 263 262 261 262 262 262 262 263 263 263 263 263 263 264 264 264 265 265 266 266 267 267 268 269 269 270 270 271 272 273 274 275 276 277 279 280 281 282 282 282 282
278 278 277 276 276 275 275 275 275 274 273 273 272 271 271 270 268 267 266 264 262 262 262 262 262 262 262 262 263 263 263 263 263 263 263 264 264 265 265 265 266 267 267 268 268 269 270 270 271 272 273 274 275 276 277 277 278 280 281 282 282 283
277 277 276 275 275 275 275 275 274 273 272 272 271 271 270 269 267 265 263 262 262 262 262 262 263 263 263 263 262 263 263 263 263 263 263 263 263 264 264 265 265 266 266 267 267 268 268 269 270 271 272 273 274 275 276 277 278 279 280 281 282 283
276 276 275 275 275 275 274 274 274 273 272 271 271 270 268 266 264 263 263 264 264 263 263 263 263 263 263 262 262 263 263 263 263 263 263 263 263 263 264 264 264 265 265 265 266 267 267 268 269 270 271 272 273 274 275 276 277 279 280 281 282 283
275 274 274 274 274 274 274 274 273 272 271 271 269 267 266 265 265 265 265 265 265 264 264 264 263 262 262 262 263 263 263 263 263 263 263 263 263 263 263 264 264 264 265 265 266 267 268 269 270 271 272 273 273 274 275 276 277 278 279 281 282 283
274 274 274 274 274 273 273 273 273 272 271 270 267 266 266 267 267 266 266 266 266 265 264 263 263 263 263 263 263 263 263 263 263 263 263 263 263 263 264 264 264 265 265 266 267 267 268 269 270 271 272 273 274 275 276 277 277 278 279 281 282 283

ECMWFFLT1_850_thetae_024.txt.gz
Theta_e
298 298 298 298 298 297 297 297 296 296 295 294 294 293 292 292 291 291 291 291 291 291 290 290 290 291 291 291 291 292 293 293 294 294 295 296 296 297 297 298 298 299 299 300 300 300 300 300 300 300 300 299 299 298 298 298 298 297 298 297 297 297
298 299 298 298 298 297 297 297 296 295 294 294 293 293 292 291 291 291 291 290 290 290 290 289 289 289 289 289 289 289 290 290 291 291 292 292 293 294 295 295 296 297 298 298 299 299 300 300 300 300 300 299 299 299 298 298 297 297 297 297 297 297
297 298 297 297 296 295 295 294 294 294 293 293 292 292 291 291 290 290 290 290 289 289 289 289 288 288 288 288 288 288 288 288 288 288 289 289 290 290 291 292 293 294 295 296 297 298 298 299 299 300 300 300 300 299 298 298 297 296 296 296 296 296
296 296 296 295 294 293 291 291 291 291 291 290 290 290 290 290 289 289 289 289 288 288 288 288 288 288 287 287 287 287 287 287 287 287 287 287 288 288 288 289 289 290 291 292 293 295 296 297 298 299 299 299 300 300 299 298 297 297 296 296 296 296
297 296 295 294 292 291 290 290 289 289 289 289 289 289 289 289 289 289 289 288 288 287 287 287 287 287 287 287 287 287 287 287 287 287 287 287 287 287 287 287 288 288 289 289 290 291 292 294 295 297 297 298 298 299 299 298 298 297 296 296 296 295
296 295 293 292 291 290 289 289 289 288 288 289 289 289 289 289 289 289 288 288 288 288 287 287 287 287 287 287 287 287 287 287 287 287 287 287 287 287 287 287 287 287 287 288 288 288 289 290 291 293 294 295 296 296 297 297 297 296 296 296 295 295
294 292 291 290 289 289 289 289 288 288 288 288 288 288 288 288 288 288 288 288 288 288 287 287 287 287 287 287 287 287 287 287 287 287 287 287 287 287 287 287 287 286 286 287 287 287 288 288 288 289 290 292 293 294 295 296 296 295 295 295 295 295
291 290 290 289 289 289 289 289 288 288 288 288 288 288 288 288 287 287 287 287 287 287 287 287 287 287 287 287 287 287 287 287 287 287 287 287 287 287 287 287 287 287 287 286 286 286 287 287 287 287 287 288 289 291 293 294 295 296 295 295 295 295
290 289 289 289 289 289 288 288 288 288 288 288 287 287 287 287 287 287 287 287 287 287 287 287 287 287 287 287 287 287 287 287 287 287 287 287 287 287 287 287 287 287 287 287 287 286 286 286 287 287 287 287 287 287 289 290 292 294 295 296 296 295
290 290 289 289 289 288 288 288 288 288 288 288 288 288 287 287 287 287 287 287 287 287 287 287 287 287 287 287 287 287 287 287 286 286 286 286 286 286 286 287 287 287 287 287 287 287 286 286 286 286 286 286 286 286 286 287 288 289 291 293 295 296
291 290 290 289 289 289 289 289 288 288 288 288 288 288 288 288 288 288 288 288 287 287 287 287 287 287 287 287 287 287 287 287 287 286 286 286 286 286 286 286 286 286 286 287 286 287 286 286 286 286 286 286 286 286 286 286 286 287 287 289 290 292
291 291 290 290 290 289 289 289 289 289 289 289 289 289 288 288 288 288 288 288 288 288 287 287 287 287 287 287 287 286 286 286 286 286 286 286 286 286 286 286 286 286 286 286 286 286 286 286 286 286 286 286 286 286 286 286 286 286 286 286 287 288
291 291 290 290 290 290 290 290 289 289 289 289 289 288 288 288 288 287 288 288 287 287 287 287 286 286 286 286 286 286 286 286 286 286 286 286 286 286 286 286 286 286 286 286 286 286 286 286 286 286 286 286 286 286 286 285 285 285 285 286 286 286
291 291 290 290 290 290 290 290 290 289 289 289 288 288 288 287 287 286 286 286 286 286 286 285 285 285 285 285 285 284 284 284 285 285 285 285 285 285 285 285 285 285 285 285 285 285 286 286 286 286 286 286 286 286 286 286 286 285 285 285 285 286
291 291 290 290 290 290 290 290 290 289 289 289 288 288 287 287 286 286 285 285 285 285 284 284 284 284 284 284 283 283 283 283 284 284 284 284 285 285 285 285 285 285 285 285 285 285 285 285 286 286 285 286 286 286 286 286 286 286 285 285 285 285
292 291 291 290 290 290 290 290 289 289 288 288 288 287 287 286 286 285 285 285 284 284 283 283 282 282 282 282 282 282 282 282 282 282 283 283 283 283 284 284 284 284 284 284 284 284 284 284 285 285 285 285 285 286 286 285 286 286 286 285 285 285
292 292 291 291 290 290 290 289 288 288 288 287 287 287 286 286 285 285 284 284 283 283 282 282 282 281 281 281 281 281 281 281 281 281 281 280 281 281 282 282 283 283 283 283 283 283 283 284 284 284 284 285 285 285 285 285 285 285 285 285 285 285
290 291 291 291 290 290 289 289 288 287 287 287 286 286 285 284 284 284 283 283 282 282 281 281 281 280 280 280 280 279 279 279 279 279 279 279 279 280 280 281 282 282 282 283 283 283 283 284 284 284 284 284 284 284 284 284 284 285 285 285 285 285
290 291 291 291 290 290 289 288 287 287 286 286 285 285 284 283 283 283 282 282 281 281 281 280 279 279 279 279 279 279 278 278 278 278 278 278 278 278 279 279 280 280 281 281 282 282 282 283 284 284 284 284 284 283 283 283 283 283 283 284 285 285
290 291 291 290 290 289 288 287 287 286 286 285 285 284 284 283 283 282 282 281 281 281 280 280 279 279 278 278 278 278 278 278 278 277 277 276 276 276 277 277 277 278 278 278 279 279 279 281 282 283 283 284 284 284 283 282 282 282 282 283 284 284
290 290 290 289 289 288 287 287 286 286 286 285 285 284 283 283 282 282 282 281 281 281 280 279 279 278 278 278 277 277 277 277 277 276 276 275 274 274 275 275 274 275 276 276 276 276 276 277 278 279 280 280 281 282 282 281 280 281 281 282 283 283
289 289 288 288 287 287 286 286 286 286 285 284 284 283 283 282 282 282 282 281 281 280 280 279 278 278 278 277 277 277 276 276 275 275 274 273 273 273 272 273 272 272 273 273 273 273 273 273 274 275 275 276 276 277 278 278 278 279 280 281 282 282
288 288 287 287 286 286 286 286 286 285 284 283 283 282 282 282 282 281 281 281 280 280 279 279 278 278 277 277 276 276 276 275 274 273 273 272 271 271 270 270 270 269 270 271 271 270 271 271 271 272 272 272 273 273 274 275 275 276 277 279 280 281
288 287 287 286 286 286 286 285 284 283 283 283 282 282 282 281 281 281 280 280 280 280 280 279 278 277 277 276 275 275 275 274 273 272 271 269 269 269 268 268 268 267 268 269 269 268 268 269 269 270 270 270 271 272 272 273 274 274 276 277 278 279
287 287 286 286 286 285 284 283 283 283 282 282 282 281 281 280 280 280 280 280 280 280 279 278 278 277 276 275 274 273 273 272 271 270 269 267 267 267 266 266 266 266 266 267 267 267 267 267 268 268 269 269 270 271 272 272 273 274 275 277 278 279
287 286 286 285 284 283 283 282 282 282 282 281 281 280 280 280 280 280 280 280 279 279 278 277 277 276 275 274 273 272 271 270 269 268 267 266 266 265 265 265 265 265 265 265 265 266 266 266 267 267 268 268 269 270 271 273 274 275 276 277 278 279
286 286 285 284 283 282 282 282 282 281 281 280 280 279 279 280 280 280 279 279 278 278 277 277 276 275 274 273 271 270 269 268 267 267 266 266 265 265 265 265 265 265 264 265 265 265 265 266 266 267 267 268 269 270 271 272 273 275 277 278 279 280
285 285 284 283 282 282 282 281 281 281 280 279 279 279 279 279 279 279 278 278 277 277 276 276 275 274 273 272 270 269 268 268 267 266 266 265 265 265 264 264 264 264 264 264 265 265 265 265 265 266 266 267 267 268 268 269 271 272 275 277 278 280
284 283 282 282 282 282 281 281 280 279 279 278 278 278 278 278 278 278 277 277 277 276 275 275 274 273 271 270 269 268 267 267 266 265 265 264 264 264 264 264 264 264 265 265 265 265 265 265 265 266 266 266 266 267 267 268 269 271 273 275 277 279
283 282 282 282 282 281 281 280 279 279 278 278 278 278 278 277 277 277 277 277 276 275 274 273 271 270 269 268 268 267 266 266 265 265 264 264 264 264 264 265 265 265 265 265 266 266 266 266 266 266 267 267 267 268 268 269 269 271 272 274 276 278
282 282 282 282 281 281 280 279 279 278 277 277 277 277 277 277 277 277 276 276 275 274 272 271 269 268 268 267 267 266 266 266 265 264 264 264 264 264 265 265 266 266 266 266 267 267 267 267 267 268 268 268 269 269 270 270 271 272 272 273 275 276
281 282 281 281 281 280 279 279 278 277 276 276 276 276 276 276 276 276 276 275 274 272 270 269 268 268 267 267 266 266 265 265 265 264 264 264 265 265 265 266 267 267 267 268 268 268 268 268 269 269 269 270 270 271 271 272 272 273 273 274 275 276
281 281 281 280 280 279 279 278 277 276 276 276 276 276 276 276 275 275 275 274 272 270 269 268 268 267 267 267 266 265 264 265 265 265 265 265 265 265 265 266 267 267 267 268 268 268 268 268 269 269 269 270 270 271 271 271 272 273 273 274 275 275
281 281 280 280 279 278 278 277 276 275 275 275 275 275 275 275 274 274 274 273 271 269 268 268 268 267 267 266 266 265 265 264 264 265 265 265 265 265 265 266 266 266 267 267 267 268 268 268 268 269 269 269 270 270 271 271 272 272 273 274 274 275
281 280 280 279 278 277 277 276 275 275 275 275 275 275 275 274 274 273 273 272 270 268 268 268 269 268 267 267 266 266 265 264 264 264 264 265 265 265 266 266 266 266 266 267 267 267 267 268 268 269 269 270 270 271 271 272 272 273 273 274 274 275
280 280 279 278 277 277 276 276 275 275 275 275 275 275 275 274 274 273 272 271 269 268 268 269 269 268 268 267 266 265 265 264 264 264 264 264 264 265 266 267 268 268 268 267 267 267 267 268 269 269 270 270 271 271 272 272 273 273 274 274 274 275
280 279 278 277 276 276 275 275 275 274 274 274 274 274 274 274 273 273 272 271 269 268 269 270 269 269 268 267 266 265 264 264 264 264 264 264 264 265 266 267 268 269 269 268 267 267 268 268 269 270 270 271 271 272 273 273 274 274 274 274 274 274
279 278 277 276 276 275 275 275 274 274 273 273 274 274 274 274 273 273 272 271 270 269 269 270 270 269 269 268 266 265 264 264 264 264 264 264 265 265 265 266 267 268 269 270 270 269 269 269 269 270 271 272 272 273 273 274 274 275 275 276 275 275

ECMWFFLT1_850_thetae_027.txt.gz
Theta_e
297 298 297 297 297 296 294 293 293 292 292 292 291 291 290 290 290 290 290 290 290 290 289 289 289 289 288 288 288 289 289 289 289 289 290 290 290 290 290 290 290 290 289 289 289 289 290 290 292 293 295 297 298 299 299 298 297 297 297 297 296 296
297 297 297 297 296 295 294 293 292 292 292 291 290 290 290 290 290 290 290 290 289 289 289 289 289 288 288 288 288 288 288 288 288 288 288 288 288 288 289 289 289 289 289 289 289 289 289 289 289 289 290 291 293 295 297 298 298 297 297 297 296 296
298 298 297 297 295 294 293 292 292 291 291 290 290 290 290 290 290 290 289 289 289 288 288 288 288 288 288 288 288 288 288 287 287 287 287 287 287 287 287 287 287 288 288 288 288 288 288 288 288 288 288 288 289 290 292 294 295 297 298 298 297 296
298 297 297 296 294 293 292 291 291 290 290 290 290 290 290 289 289 289 289 288 288 288 287 287 287 287 287 287 287 287 287 287 287 287 287 287 287 287 287 287 287 287 287 287 287 287 288 288 288 288 288 288 288 288 288 289 290 292 294 296 297 297
296 296 295 294 292 291 291 291 290 290 290 289 289 289 289 289 289 288 288 288 288 288 287 287 287 287 287 287 287 287 287 287 287 287 287 287 287 287 287 287 287 287 287 287 287 287 287 287 287 287 287 288 288 288 287 287 287 288 289 291 293 295
295 295 294 292 291 290 290 290 290 290 289 289 289 289 289 288 288 288 288 288 287 287 287 287 287 287 287 287 287 287 287 287 287 287 287 287 287 287 287 287 287 287 287 287 287 287 287 287 287 287 287 287 287 287 287 287 287 287 287 287 288 290
295 294 293 291 290 290 290 290 290 289 289 289 289 289 288 288 288 288 288 288 288 287 287 287 287 287 287 287 287 287 287 287 287 287 287 287 287 287 286 286 286 286 286 286 286 286 286 286 286 287 286 286 286 286 286 287 287 287 287 287 287 287
293 292 291 290 290 290 290 290 289 289 289 289 288 288 288 288 288 288 288 288 288 288 288 288 288 288 288 287 287 287 287 287 287 286 286 286 286 286 286 286 286 286 285 286 286 286 286 286 286 286 286 286 286 286 286 286 286 286 286 287 287 287
292 291 290 290 289 289 289 289 289 289 288 288 288 288 288 288 288 288 288 288 288 288 288 288 288 288 288 288 287 287 287 287 287 286 286 286 286 286 286 286 286 285 285 285 285 285 285 285 285 285 285 286 286 286 286 286 286 286 286 286 286 286
291 290 290 290 289 289 289 289 289 289 289 289 289 288 289 289 289 289 288 288 288 288 288 288 288 288 288 288 287 287 287 286 286 286 286 286 285 285 285 285 285 285 285 285 285 285 285 285 285 285 285 285 285 285 285 285 286 286 286 286 286 286
290 290 290 290 289 289 289 289 289 289 289 289 289 289 289 289 289 289 289 288 288 288 288 288 288 288 287 287 287 287 286 286 286 285 285 285 285 285 285 285 285 285 285 285 285 285 285 285 285 285 285 285 285 285 285 285 285 285 285 286 286 286
292 291 291 290 290 290 290 289 289 289 289 289 289 289 289 289 289 289 289 288 288 288 288 288 288 287 287 286 286 286 285 285 285 285 285 285 285 285 285 285 285 285 285 285 285 285 285 285 285 285 285 284 284 284 284 284 284 284 284 285 285 285
292 292 291 291 291 290 290 290 290 289 289 289 289 289 289 289 289 288 288 288 288 288 288 288 287 286 286 285 285 284 284 284 284 284 284 284 284 284 284 284 284 284 284 284 284 284 284 284 285 285 284 284 284 283 283 283 284 284 284 284 284 284
292 292 292 291 291 291 290 290 290 290 290 289 289 289 289 289 288 288 288 288 288 287 287 286 286 285 284 284 283 283 283 283 283 283 283 283 283 283 283 283 284 284 284 284 284 284 284 284 284 284 284 284 284 283 283 283 283 283 283 283 283 284
292 292 291 291 291 291 290 290 290 290 290 290 289 289 289 288 288 287 287 287 287 286 286 285 284 283 283 283 282 282 282 282 282 281 281 281 282 282 282 283 283 283 283 283 283 284 284 284 284 284 284 284 283 283 282 282 282 282 282 282 283 283
291 291 291 291 291 290 290 290 290 290 290 289 289 288 288 287 287 287 287 286 286 285 284 283 283 282 282 282 281 281 281 281 281 281 281 280 281 281 281 282 282 282 282 283 282 282 283 284 284 284 283 283 282 282 281 280 280 280 281 281 282 282
290 289 290 290 290 290 290 290 290 289 289 289 289 288 287 287 286 286 286 285 284 283 283 282 282 282 281 281 280 280 280 280 280 280 280 279 280 280 280 280 280 281 281 281 281 281 281 282 283 282 281 280 280 279 278 278 278 279 279 280 280 281
290 290 290 290 290 290 290 290 290 289 289 289 288 287 287 286 286 285 284 283 283 282 282 282 281 281 281 280 280 280 280 280 279 279 279 278 279 279 279 279 279 279 279 280 279 278 279 281 281 280 279 277 277 276 276 276 277 277 278 278 279 279
290 289 290 290 290 290 290 290 290 289 289 288 287 287 287 286 285 284 283 283 282 282 282 281 281 281 280 280 280 280 280 279 279 279 278 278 278 278 278 278 278 278 278 278 277 276 276 278 279 278 276 274 274 274 274 275 275 275 276 276 277 277
290 289 289 289 289 289 289 289 289 289 288 287 287 286 286 285 284 283 283 282 282 282 281 281 280 280 280 280 279 279 279 279 279 278 278 277 277 277 277 276 276 276 276 275 275 274 273 274 275 274 273 273 272 272 272 272 273 273 273 274 274 275
289 289 289 289 289 289 288 288 288 287 287 286 286 285 284 283 283 282 282 282 282 281 281 280 280 280 279 279 279 279 279 278 278 278 277 276 276 276 275 274 273 274 274 273 272 272 271 272 273 273 272 271 271 270 270 270 271 271 272 272 272 273
289 289 289 289 288 288 288 288 287 286 286 286 285 284 283 283 282 282 282 282 281 281 280 280 279 279 278 278 278 278 278 278 277 277 276 276 275 274 274 273 272 272 273 271 270 271 270 270 271 271 270 269 269 268 269 269 270 270 271 271 271 272
289 289 289 288 288 288 287 287 286 286 285 284 283 283 282 282 282 282 282 281 281 281 280 279 279 278 278 278 278 278 278 277 276 276 275 274 274 273 272 272 271 271 271 270 269 269 269 269 269 268 268 267 267 268 269 269 269 269 270 270 270 271
289 289 288 287 287 287 287 286 286 285 284 283 282 282 282 282 282 281 281 281 281 280 279 279 278 278 278 278 277 277 277 276 275 275 274 273 272 271 271 271 270 270 270 270 269 269 268 268 267 267 267 266 267 267 268 269 269 270 270 270 271 271
289 288 287 287 287 286 286 286 285 284 283 282 282 282 282 281 281 281 281 281 280 280 279 278 278 278 278 277 277 276 276 276 275 273 272 271 271 270 270 270 270 270 269 269 269 268 268 268 267 267 267 267 267 267 268 269 269 270 270 270 270 271
288 288 287 287 286 286 286 285 283 283 282 282 282 281 281 281 281 281 280 280 280 279 278 278 278 278 277 277 276 276 275 274 273 272 271 270 270 270 270 270 270 269 268 268 268 268 268 268 267 267 267 267 267 267 268 268 269 269 270 270 270 270
288 287 287 287 286 286 285 283 282 282 282 281 281 281 281 281 281 280 280 280 279 278 278 278 278 278 277 276 275 274 274 273 272 271 271 271 271 270 270 270 269 268 267 267 267 267 267 267 267 267 267 267 267 267 268 268 269 269 270 270 270 270
287 287 286 286 286 285 283 282 282 282 281 281 281 281 281 280 280 280 280 279 278 278 278 278 278 278 277 276 274 273 272 272 271 271 271 271 271 270 270 269 269 268 267 266 266 266 266 267 267 267 267 267 267 268 268 269 269 270 270 270 270 270
286 286 286 286 285 284 282 282 281 281 281 280 280 280 280 280 280 280 279 278 278 278 278 278 278 277 276 275 274 273 272 272 271 270 271 271 271 270 269 268 267 266 266 266 266 266 267 267 267 267 268 268 268 268 269 270 270 270 271 271 271 271
286 286 286 285 284 282 282 282 281 281 280 280 280 280 280 279 279 279 278 277 277 278 278 278 277 276 276 275 274 273 272 272 271 270 271 271 270 269 268 267 266 266 266 266 266 267 267 267 268 268 268 268 269 270 270 270 271 271 271 271 272 272
285 285 285 284 282 282 281 281 281 280 280 280 280 279 279 279 279 278 277 277 277 277 277 277 276 276 275 274 273 272 272 271 271 271 270 271 271 269 266 265 266 266 267 267 267 267 267 268 268 268 269 270 271 271 271 271 272 272 272 272 272 273
285 285 284 283 282 281 281 281 280 280 280 280 279 279 279 278 278 278 277 277 277 277 277 277 276 275 274 274 273 272 271 271 271 271 271 270 271 269 267 266 267 267 267 268 268 268 268 268 269 269 270 271 272 272 272 272 273 273 273 273 273 273
284 284 283 282 281 281 281 281 280 279 279 279 278 278 278 278 277 277 277 276 277 277 277 276 275 274 274 273 273 272 271 270 271 272 272 271 271 270 269 268 268 268 268 268 268 268 268 269 269 270 271 272 272 272 273 273 273 273 273 274 274 274
283 283 282 281 281 281 281 280 279 279 279 279 278 278 277 277 276 276 276 276 276 276 276 275 275 274 274 273 272 271 270 270 270 272 273 273 272 271 271 270 270 269 269 268 268 268 268 269 270 271 272 272 272 273 273 273 274 274 274 274 275 275
283 282 281 281 281 281 280 280 279 278 278 278 277 277 277 276 276 276 276 276 276 276 276 275 274 274 273 273 272 271 270 270 270 271 272 273 273 273 272 272 271 270 269 269 269 269 269 269 270 272 272 272 273 273 273 274 274 274 275 275 274 274
281 281 281 281 280 280 280 279 278 278 278 277 276 276 276 276 275 275 275 275 275 275 275 275 274 274 273 273 272 271 270 270 270 270 270 270 270 272 273 273 273 272 270 270 270 270 269 269 270 271 272 272 273 273 274 274 274 274 274 275 274 274
281 280 280 280 280 280 279 278 277 277 277 276 276 276 275 275 275 275 275 275 275 275 275 274 274 273 273 273 272 271 270 270 271 271 270 269 268 268 269 272 273 273 272 271 270 270 269 269 270 270 271 272 273 274 274 273 273 273 274 275 275 275
280 280 280 279 279 279 278 277 276 276 276 275 275 275 275 275 275 275 275 275 275 275 274 274 274 273 273 272 272 271 270 271 271 271 271 270 269 268 267 269 270 271 272 272 271 270 270 270 270 271 271 272 272 273 273 272 272 272 273 274 274 275

ECMWFFLT1_850_thetae_030.txt.gz
Theta_e
300 299 298 297 295 294 293 292 292 292 292 292 292 292 292 291 291 291 291 291 290 290 290 289 289 289 289 289 288 288 288 289 289 289 288 289 289 289 289 289 289 289 289 288 288 288 288 288 288 288 288 288 288 288 288 288 288 288 289 289 289 289
299 297 296 295 294 293 292 292 291 291 291 292 292 292 292 291 291 291 290 290 289 289 289 289 289 288 288 288 288 288 288 288 288 288 288 288 288 288 288 288 288 288 288 288 288 288 288 288 288 288 287 288 288 288 288 288 287 287 288 288 288 288
297 296 295 294 293 292 292 291 291 291 291 291 291 291 291 290 290 290 289 289 289 288 288 288 288 288 288 288 288 288 288 288 288 288 288 288 288 288 287 287 287 287 287 288 288 288 288 288 287 287 287 287 287 287 287 287 287 287 287 287 287 287
295 295 294 293 293 292 291 291 290 291 290 290 290 290 290 289 289 289 288 288 288 288 288 288 288 288 288 288 288 288 288 288 287 287 287 287 287 287 287 287 287 287 287 287 287 287 287 287 287 287 287 287 287 287 287 286 286 286 287 287 287 287
295 295 294 293 293 292 291 291 290 290 290 290 289 289 289 289 289 288 288 288 288 288 288 288 288 288 288 288 288 288 287 287 287 287 287 287 287 286 286 286 286 286 286 286 286 286 286 286 286 286 286 287 287 287 287 287 287 286 286 286 286 286
295 295 295 294 293 292 291 290 290 290 289 289 289 288 288 288 288 288 288 288 288 288 288 288 288 288 288 288 288 288 288 287 287 287 287 287 286 286 286 286 286 286 286 286 286 286 286 286 286 286 286 286 286 286 286 286 287 286 287 287 286 286
295 295 295 295 294 293 291 290 290 289 289 289 288 288 288 288 288 288 288 288 288 288 288 288 288 288 288 288 288 288 288 287 287 287 287 287 286 286 286 286 286 286 286 286 286 286 286 286 286 286 286 286 286 286 286 286 286 286 286 286 286 286
295 295 295 295 294 292 290 290 289 289 289 288 288 288 288 288 288 288 288 288 288 288 288 288 288 288 288 288 288 288 288 287 287 287 287 286 286 286 286 286 286 286 286 286 286 286 286 286 286 286 286 286 286 286 285 285 285 285 285 285 286 286
295 295 295 295 292 290 289 289 289 288 288 288 288 288 288 288 288 288 289 289 289 289 289 289 289 288 288 288 288 288 287 287 287 287 286 286 286 286 286 286 286 286 286 286 286 286 286 286 286 286 286 285 285 285 285 285 285 285 285 285 285 285
295 295 295 293 290 289 289 289 289 288 288 288 288 289 289 289 289 289 289 289 289 289 289 289 289 288 288 288 288 288 287 287 287 286 286 285 285 285 285 285 286 286 286 286 286 286 286 286 286 286 285 285 284 284 283 284 284 284 284 284 284 284
295 295 293 291 289 289 289 289 289 289 289 289 289 289 289 289 289 289 289 289 289 289 289 289 289 288 288 288 288 288 287 287 286 286 285 285 285 285 285 285 285 285 285 285 285 285 285 285 285 285 285 284 284 283 282 282 282 282 282 282 283 284
295 293 291 290 290 290 290 290 290 290 290 290 290 290 289 289 289 289 289 289 289 289 289 289 289 288 288 288 288 287 286 286 285 285 285 285 285 285 285 285 285 285 285 285 285 285 285 285 285 285 284 283 282 281 281 281 280 280 280 280 281 282
294 292 291 291 291 291 291 291 291 291 290 290 290 289 289 289 289 289 289 289 289 289 289 288 288 288 288 288 287 286 285 284 284 284 284 284 284 284 284 284 285 285 285 285 285 285 285 285 285 284 283 283 282 280 279 279 279 280 280 280 280 281
293 293 292 292 292 292 291 291 291 291 290 290 290 290 290 289 289 289 289 289 288 288 288 288 288 288 287 287 286 284 284 284 283 283 283 283 283 284 284 284 284 284 284 284 284 284 284 285 284 283 282 282 281 280 278 278 278 279 279 279 279 279
293 293 292 292 292 291 291 291 291 290 290 290 290 290 289 289 289 289 289 289 288 288 287 287 287 286 286 285 284 283 283 283 283 283 283 283 283 284 284 284 284 284 284 283 283 283 283 283 283 281 280 280 279 278 277 277 277 278 278 278 278 278
292 292 291 291 291 291 290 291 291 290 290 290 290 290 289 289 289 289 288 288 287 287 286 286 286 285 284 283 283 283 283 283 283 283 283 283 283 283 284 284 284 283 283 282 282 282 282 282 280 278 278 277 276 276 275 275 275 276 277 277 278 277
291 290 290 290 290 290 290 290 290 290 290 290 289 289 289 289 289 288 287 287 286 286 285 285 284 283 283 283 282 282 282 282 282 283 283 283 283 283 283 283 283 282 282 281 280 280 281 280 278 276 276 275 274 273 273 272 273 274 274 276 276 276
290 290 290 290 290 290 289 289 289 289 290 290 289 289 289 288 288 287 287 286 286 285 284 283 283 283 282 282 282 282 282 282 282 282 282 282 282 282 282 282 282 281 281 280 279 278 279 278 276 274 274 273 272 272 271 271 272 272 273 274 274 274
290 290 290 290 290 289 289 289 289 289 289 289 289 289 288 288 287 287 286 286 285 284 283 283 282 282 282 282 282 282 282 282 282 282 281 281 282 282 281 281 281 280 279 279 278 277 277 277 275 273 273 272 271 271 271 270 271 271 271 271 272 272
290 290 290 290 289 289 289 289 289 289 288 288 288 288 288 288 287 287 286 285 284 283 282 282 282 282 281 281 281 282 282 282 282 281 280 281 281 281 281 280 280 279 278 277 276 275 274 274 273 272 272 272 271 271 270 269 269 269 269 269 269 270
290 290 290 289 289 289 289 289 288 288 288 287 287 288 287 287 287 286 285 284 283 282 282 282 281 281 281 281 281 282 282 281 281 280 280 280 280 280 280 279 279 278 277 275 274 273 272 273 272 272 271 271 271 270 270 268 268 268 268 268 268 269
289 290 289 289 289 289 289 288 288 287 287 287 287 287 287 287 286 285 284 283 282 282 282 281 281 281 281 281 281 281 281 280 280 280 280 280 279 279 279 278 277 276 275 274 273 273 272 272 272 272 271 271 271 270 269 268 268 268 268 268 268 268
289 289 289 289 289 289 288 288 287 287 287 287 287 287 287 286 285 283 283 282 282 282 281 281 281 281 281 281 281 281 280 280 280 280 279 279 278 278 278 277 275 274 274 273 273 272 272 272 272 271 271 270 270 270 269 268 268 268 268 268 268 269
289 289 289 289 289 288 288 288 287 287 287 287 287 287 286 285 283 283 282 282 281 281 281 281 280 280 280 280 280 280 280 280 279 279 278 278 278 277 276 275 274 273 273 273 273 273 272 272 272 271 271 270 270 270 269 268 268 268 269 269 269 269
289 289 289 289 288 288 288 287 286 286 286 286 286 286 285 284 283 282 282 282 281 281 280 280 280 280 280 280 279 279 279 279 279 278 277 277 277 276 275 274 273 273 273 273 273 273 273 272 272 271 271 270 270 270 270 269 269 269 270 270 270 270
289 288 288 288 288 287 287 286 286 286 286 286 286 285 284 283 282 282 282 281 281 280 280 280 280 280 279 279 279 279 279 279 278 278 277 276 276 275 274 274 273 273 273 273 273 273 273 272 271 272 271 270 270 270 270 270 270 270 271 271 271 271
288 288 288 288 288 287 287 286 286 286 286 285 285 284 283 282 282 282 281 281 280 280 280 280 280 279 279 279 279 279 279 278 277 277 276 276 275 274 274 273 273 273 273 272 271 271 271 271 270 271 270 269 269 270 270 271 271 271 271 271 272 272
288 288 288 288 287 287 286 286 286 286 285 285 284 283 282 282 281 281 281 280 280 279 279 279 279 279 279 279 278 278 278 277 277 276 276 275 274 274 273 273 273 273 272 270 269 269 269 268 268 269 269 269 269 270 271 271 271 272 272 272 272 272
288 288 287 287 287 286 286 285 285 285 284 284 282 282 281 281 281 281 280 280 279 279 279 279 279 279 279 279 278 278 277 276 276 276 275 275 274 274 273 273 272 271 269 268 267 268 268 268 268 268 268 269 269 270 271 272 272 272 273 273 273 273
288 287 287 286 286 286 285 285 285 284 284 282 281 281 281 281 280 280 280 279 279 279 278 278 278 278 278 278 278 277 277 276 276 275 275 275 274 274 273 272 270 268 267 267 267 268 268 268 268 268 269 269 270 271 272 272 273 273 273 273 274 274
287 287 286 286 286 285 285 284 284 283 282 281 281 281 281 280 280 280 279 279 278 278 278 278 278 278 278 278 277 277 276 276 276 275 275 275 274 274 273 271 268 267 268 268 268 268 268 268 269 269 270 271 272 273 273 273 274 274 274 274 274 275
287 286 286 285 285 285 284 284 283 282 281 281 281 280 280 280 280 279 279 278 278 278 277 277 277 277 277 277 277 277 276 276 276 275 275 275 274 274 273 271 269 268 268 268 268 268 268 268 269 269 270 271 272 274 274 274 274 274 274 275 275 275
286 286 285 285 284 284 283 283 282 281 280 280 280 280 280 279 279 279 278 278 278 277 277 277 277 277 277 277 276 276 276 276 276 276 276 275 274 274 274 273 272 271 270 269 269 268 268 269 270 269 270 271 272 274 274 274 274 275 275 275 275 275
286 285 285 284 284 283 283 282 281 280 280 280 280 279 279 279 279 278 278 277 277 277 276 276 277 277 276 276 276 275 275 275 276 276 277 276 276 275 274 273 273 272 272 271 271 269 269 269 270 270 270 271 271 273 274 274 274 275 275 275 275 275
285 285 284 284 283 283 283 281 280 280 280 279 279 279 279 278 278 278 277 277 277 276 276 276 276 276 276 276 275 275 275 275 275 275 276 277 277 276 276 275 273 272 271 272 272 272 271 270 271 271 271 271 271 272 273 274 274 274 274 274 274 274
284 284 284 283 283 283 282 280 279 279 279 279 279 279 278 278 277 277 277 276 276 276 275 275 276 276 276 275 275 275 275 275 274 274 274 275 276 276 276 276 276 275 273 272 273 273 273 272 272 273 272 271 270 271 272 272 273 274 274 274 273 273
284 283 283 283 283 282 281 279 279 279 279 278 278 278 278 277 276 276 276 275 275 275 275 275 275 275 275 275 275 274 274 274 274 274 274 274 274 274 274 275 276 276 275 274 274 274 274 273 274 273 272 271 270 271 271 272 273 273 274 274 273 272
283 283 282 282 282 281 280 279 278 278 278 278 278 277 277 276 276 275 275 275 274 274 274 275 275 275 275 274 274 274 274 274 274 274 274 274 273 273 273 273 274 275 275 275 274 274 274 274 274 273 271 270 271 272 272 272 272 272 272 273 272 272

ECMWFFLT1_850_thetae_033.txt.gz
Theta_e
299 298 298 298 297 297 297 296 296 296 295 294 294 293 292 292 291 291 291 290 290 290 290 289 289 289 289 289 289 289 289 289 289 289 289 289 289 289 289 289 289 289 289 289 289 289 289 288 288 288 288 288 287 287 287 287 287 287 287 287 287 287
298 298 298 297 297 296 296 296 295 295 294 293 292 291 291 290 290 289 289 289 289 289 289 289 289 289 288 288 288 288 288 288 288 288 288 288 288 288 288 288 288 288 288 288 288 288 288 288 288 288 288 288 287 287 287 287 287 287 287 287 287 287
298 297 297 296 296 296 296 295 295 294 293 292 291 290 290 289 289 289 289 289 289 289 289 288 288 288 288 288 288 288 288 288 288 288 288 288 288 288 288 288 287 287 287 287 287 287 287 287 287 287 287 287 287 287 287 287 287 287 287 287 287 287
297 297 296 296 297 297 296 295 294 293 291 291 290 289 289 289 289 289 289 289 288 288 288 288 288 288 288 288 288 288 288 288 288 288 288 288 288 288 288 287 287 287 287 287 287 287 287 287 287 287 287 287 287 287 287 287 287 287 287 287 287 287
297 296 296 297 297 297 296 294 292 291 290 289 289 289 288 288 288 288 288 288 288 288 288 288 288 288 288 288 288 288 288 288 288 288 288 288 288 288 287 287 287 287 287 287 287 287 286 286 287 286 287 287 287 287 287 287 287 287 287 287 287 287
296 295 296 297 297 296 295 293 291 290 289 288 288 288 288 288 288 288 288 288 288 288 288 288 288 288 288 288 288 288 288 288 288 288 288 288 288 288 287 287 287 287 287 287 287 286 286 286 286 286 286 286 286 286 287 287 287 287 287 287 287 287
295 295 296 297 297 296 295 293 291 289 288 288 288 288 288 288 288 288 288 288 288 288 288 288 289 289 289 289 289 289 288 288 288 288 288 288 288 288 287 287 287 287 286 286 286 286 286 286 286 286 286 286 286 286 286 286 286 286 287 287 287 287
295 295 296 296 297 296 294 292 290 289 288 288 288 288 288 288 288 288 288 289 289 289 289 289 289 289 289 289 289 289 289 288 288 288 288 288 288 287 287 286 286 286 286 286 286 286 286 286 285 285 285 285 285 285 285 286 286 286 286 286 286 287
296 296 296 296 296 296 294 291 289 288 288 288 288 288 288 288 289 289 289 289 289 289 289 289 289 289 289 289 289 289 289 288 288 288 288 288 287 287 286 286 285 285 285 285 285 285 285 285 285 285 285 285 285 285 285 285 285 285 286 286 286 286
297 297 296 296 295 295 293 291 289 288 288 288 288 288 289 289 289 289 289 289 289 290 290 289 289 289 289 289 289 289 289 289 288 288 288 288 287 286 285 285 285 285 285 285 285 285 285 285 285 285 285 285 285 285 285 285 285 285 285 285 285 285
298 297 296 295 295 294 293 290 288 288 288 289 289 289 289 289 289 290 290 290 290 290 289 289 289 289 289 289 289 289 289 289 288 288 288 287 286 285 285 284 284 284 284 284 284 284 284 285 285 285 284 284 284 284 284 284 285 284 284 285 285 285
298 297 296 295 295 294 292 290 289 289 289 290 290 289 290 290 290 290 290 290 289 289 289 289 289 289 289 289 289 289 289 288 288 288 287 287 285 284 284 284 284 284 284 284 284 284 284 284 284 284 284 284 283 283 284 284 284 284 284 284 284 284
297 296 295 295 295 293 291 290 290 290 290 290 290 290 290 290 289 289 289 289 289 289 289 289 289 289 289 289 289 288 288 288 288 287 287 285 284 284 284 284 284 284 284 284 284 284 284 284 284 284 284 283 283 282 282 283 283 283 283 283 282 282
296 296 296 295 294 292 290 290 291 291 291 291 291 290 290 290 289 289 289 289 289 289 289 289 289 289 289 289 288 288 287 287 287 286 285 284 284 284 284 283 283 283 284 284 284 284 284 284 284 283 283 283 282 281 280 281 281 281 281 281 280 279
296 296 295 294 293 291 291 291 291 291 291 291 291 290 290 290 290 289 289 289 289 289 289 289 289 289 288 288 287 287 287 286 285 284 284 283 283 283 283 283 283 283 284 284 284 284 284 284 283 283 282 282 281 280 279 279 279 279 279 279 278 277
295 294 293 293 292 292 292 292 291 291 291 291 291 290 290 290 290 289 289 289 289 289 289 289 288 288 288 287 287 287 286 285 284 283 283 283 283 283 283 283 283 283 283 283 283 283 283 283 282 282 281 281 280 279 278 278 278 277 277 277 276 275
293 293 293 293 292 292 291 291 291 290 290 290 290 290 290 289 289 289 289 289 289 289 288 288 288 288 287 287 286 285 284 283 283 283 283 283 283 283 283 283 283 283 283 283 283 283 283 282 281 281 280 280 279 278 277 276 276 276 276 275 275 274
292 292 292 292 291 291 290 290 290 290 290 290 289 289 289 289 289 289 289 288 288 288 288 288 287 287 287 286 285 284 283 283 283 282 282 282 282 282 283 283 283 283 283 282 282 282 282 281 280 280 279 278 277 276 275 275 275 275 274 274 274 274
291 291 291 291 290 290 290 290 290 290 289 289 289 289 289 289 289 288 288 288 288 287 287 287 287 286 285 284 283 283 283 282 282 282 282 282 282 282 283 283 283 282 282 282 281 280 281 281 280 279 278 277 275 275 274 274 274 274 274 273 273 272
291 291 291 290 290 290 290 290 290 289 289 289 289 289 289 288 288 288 287 287 287 287 287 286 286 285 284 283 283 282 282 282 282 282 282 282 282 282 282 282 282 282 281 280 280 279 280 280 279 277 277 276 274 274 273 273 273 273 272 272 271 271
291 290 290 290 290 290 290 289 289 289 289 289 289 289 288 288 287 287 287 287 287 287 286 286 285 284 283 282 282 282 282 282 281 281 281 282 282 282 282 281 281 281 280 280 279 278 278 279 278 277 276 275 274 274 273 273 272 271 271 270 270 270
290 290 290 290 290 289 289 289 289 289 289 289 289 288 288 287 287 287 287 287 287 286 286 285 284 282 282 282 282 281 281 281 281 281 281 281 281 281 281 281 280 280 280 279 278 278 277 277 277 276 275 275 274 273 273 273 272 270 270 269 269 270
290 290 289 289 289 289 289 289 289 289 289 289 288 288 287 287 287 287 287 286 286 285 284 283 282 282 281 281 281 281 281 281 281 281 281 281 281 281 281 280 280 279 279 278 277 277 276 276 276 275 275 275 274 273 273 272 271 270 269 269 269 270
290 289 289 289 289 289 289 289 289 289 288 288 288 287 287 287 286 286 286 286 285 284 283 282 281 281 281 281 281 281 281 281 281 281 281 280 280 280 280 280 279 279 278 278 277 276 276 275 275 275 275 275 274 274 274 272 270 270 270 270 270 270
289 289 289 289 289 289 288 288 288 288 288 288 287 287 287 286 286 286 286 285 284 283 282 281 281 281 281 280 280 280 281 281 280 280 280 280 280 280 280 279 278 278 277 277 276 276 275 275 275 275 275 275 275 275 274 272 271 270 270 270 271 271
289 289 289 289 288 288 288 288 288 288 288 287 287 287 286 286 286 285 285 285 284 282 281 281 281 280 280 280 280 280 280 280 280 280 280 279 279 279 279 279 278 277 276 276 276 276 276 275 275 276 276 275 275 274 273 271 271 271 271 271 271 272
289 289 289 289 288 288 288 288 288 288 287 287 286 286 286 286 285 285 285 284 283 281 281 281 280 280 280 279 280 280 280 280 280 280 279 279 279 279 278 278 277 276 276 276 276 276 276 275 275 276 275 274 273 272 271 271 272 272 272 272 272 272
289 289 289 288 288 288 288 288 288 287 287 286 286 286 286 285 285 285 284 283 281 281 281 280 280 280 279 279 279 280 280 279 279 279 279 279 278 278 277 277 276 275 276 276 276 275 275 274 274 275 274 272 271 271 271 272 271 272 272 272 273 273
289 289 289 288 288 288 288 288 287 287 286 286 286 285 285 285 285 284 283 282 281 280 280 280 280 279 279 279 279 279 279 279 279 279 279 278 278 277 277 276 276 275 276 275 274 274 274 274 274 273 272 271 271 271 271 271 271 272 272 273 273 274
289 288 288 288 288 288 288 287 287 286 286 286 285 285 285 285 284 284 282 281 280 280 280 279 279 279 279 279 279 279 279 278 278 278 278 278 277 277 276 276 276 275 275 273 272 272 272 273 273 272 271 270 271 271 271 272 272 272 273 273 273 274
289 288 288 288 288 287 287 287 286 286 285 285 285 285 284 284 284 283 281 280 280 280 279 279 279 279 279 279 279 279 278 278 278 278 278 277 276 276 276 275 275 274 272 270 270 270 271 271 272 272 271 270 271 272 272 272 273 273 273 274 274 274
289 288 288 288 287 287 287 286 285 285 285 284 284 284 284 284 283 282 281 280 280 280 279 279 278 278 278 278 278 278 278 278 277 277 277 277 276 276 275 275 274 273 272 270 271 271 271 271 272 271 270 270 271 271 272 272 273 273 273 274 274 274
289 288 288 288 287 287 286 285 285 284 284 284 284 284 283 283 282 281 280 280 280 279 279 278 278 278 278 278 278 278 278 278 278 277 277 276 276 276 275 275 274 273 273 272 272 273 273 274 273 271 269 269 270 270 271 272 272 272 272 273 272 272
289 289 288 288 287 286 285 284 284 283 283 283 283 283 282 282 281 280 280 280 279 279 278 278 278 277 277 277 277 277 277 277 278 278 277 277 276 276 275 275 275 274 274 274 274 274 274 274 273 271 270 269 269 270 271 271 272 272 273 272 272 272
289 289 288 287 286 286 285 284 283 283 282 282 282 282 281 281 280 280 280 279 279 278 277 277 277 277 277 277 276 276 276 276 277 277 277 277 277 276 276 276 275 274 274 274 275 275 274 274 273 271 270 269 270 271 271 272 273 274 273 272 272 272
289 288 287 286 286 285 284 283 282 282 282 282 281 281 280 280 279 279 279 279 278 278 277 277 276 276 276 276 276 276 276 276 276 276 276 276 277 277 277 277 276 275 274 274 275 275 274 274 274 272 270 270 271 272 272 273 274 274 273 272 272 272
288 287 287 286 285 284 283 282 282 282 282 281 281 280 279 279 279 279 279 278 278 277 277 276 276 275 275 275 275 275 275 275 275 275 275 275 275 275 276 276 276 276 276 275 275 275 274 274 274 273 272 272 273 273 273 273 274 274 274 274 273 272
287 287 286 285 284 284 283 282 281 282 281 281 280 279 279 278 278 278 278 278 277 276 276 276 275 275 274 274 274 275 275 275 274 274 274 274 274 274 274 275 275 276 276 275 275 275 274 274 274 273 272 272 273 272 273 273 273 273 273 273 272 272

ECMWFFLT1_850_thetae_036.txt.gz
Theta_e
299 299 299 298 298 297 297 297 296 296 295 295 294 294 294 294 293 293 293 293 293 292 292 291 291 290 290 290 290 289 289 289 289 289 289 289 288 288 288 288 288 288 288 288 288 288 288 288 288 288 288 288 288 288 288 288 287 287 287 287 287 287
299 299 298 298 298 297 296 296 295 295 294 294 293 293 293 293 292 292 292 291 291 291 290 290 289 289 289 289 289 288 289 288 288 288 288 288 288 288 288 288 288 288 288 288 288 288 288 287 287 287 288 288 288 288 287 287 287 287 287 287 287 287
299 298 297 297 297 296 296 295 295 294 293 293 293 292 292 291 291 291 290 290 290 289 289 289 289 289 289 288 288 288 288 288 288 288 288 288 288 288 288 288 288 288 287 287 287 287 287 287 287 287 287 287 287 287 287 287 287 287 287 287 287 287
298 298 297 296 296 296 296 295 294 293 293 292 292 291 291 290 290 290 290 289 289 289 289 289 289 288 288 288 288 289 289 289 289 289 288 288 288 288 288 288 288 288 288 287 287 287 287 287 286 286 286 286 286 286 286 286 287 287 287 287 287 287
297 297 297 296 296 296 295 294 293 293 292 292 291 291 290 290 290 289 289 289 289 289 288 288 288 288 289 289 289 289 289 289 289 289 289 289 288 288 288 288 288 288 288 288 287 287 287 286 286 286 286 286 286 286 286 286 286 286 287 287 287 287
297 296 296 296 295 295 294 293 293 293 292 292 291 290 290 289 289 289 289 288 288 288 288 288 289 289 289 289 289 289 289 289 289 289 289 289 288 288 288 288 288 288 288 288 287 287 286 286 286 286 286 286 286 286 286 286 286 286 286 286 286 287
297 297 296 296 295 294 294 294 294 293 292 291 290 289 289 289 289 288 288 288 288 289 289 289 289 289 289 289 289 289 289 289 289 289 289 288 288 288 288 288 288 288 288 287 287 286 286 285 285 285 285 285 285 285 285 285 286 286 286 286 286 286
298 297 296 295 294 295 295 295 295 294 292 291 290 289 289 289 288 288 288 289 289 289 289 290 290 289 289 289 289 289 289 289 289 289 289 288 288 288 288 288 288 288 287 287 286 285 285 285 285 285 285 285 285 285 285 285 285 285 285 286 286 286
299 297 296 295 294 295 296 296 295 295 293 291 290 289 289 288 288 288 289 289 289 290 290 290 290 290 289 290 290 289 289 289 289 289 289 288 288 288 288 288 288 287 287 286 285 285 284 284 284 284 284 284 284 284 284 285 285 285 285 285 285 285
299 297 296 296 295 295 295 296 296 295 294 291 290 289 288 288 288 289 289 289 289 290 290 289 289 289 289 289 289 289 289 289 289 289 289 288 288 288 287 287 287 287 286 285 284 284 284 284 284 284 284 284 284 284 284 284 285 285 285 285 285 285
299 297 296 296 295 295 295 295 296 296 294 290 289 288 288 288 288 289 289 289 289 289 289 289 289 289 289 289 289 289 289 289 289 289 288 288 287 287 287 287 286 285 284 284 284 284 284 284 283 283 283 284 284 284 284 284 284 284 284 285 285 285
298 297 297 296 296 296 295 296 296 295 293 290 288 288 288 288 288 289 289 289 289 289 289 289 289 289 289 289 289 289 289 289 289 288 288 287 287 287 287 286 285 284 284 284 284 284 283 283 283 283 283 283 283 284 284 284 284 284 284 284 284 284
298 297 297 297 297 296 296 296 296 294 291 289 288 288 288 288 289 289 289 289 289 289 289 289 289 289 289 289 289 289 289 288 288 288 287 287 287 287 286 285 284 283 283 283 283 283 283 283 283 283 283 283 283 283 283 283 283 283 283 283 283 283
299 298 297 297 296 296 295 295 295 293 291 289 289 289 288 289 289 289 289 289 289 289 289 289 289 289 289 289 289 288 288 288 288 287 287 287 287 286 285 284 283 283 283 283 283 283 283 283 283 283 283 283 283 282 282 282 282 282 282 282 281 281
298 298 298 297 296 296 296 296 295 292 290 290 290 290 289 289 289 289 289 289 289 289 289 289 289 289 289 288 288 288 288 287 287 287 287 287 286 285 284 283 283 283 283 283 283 283 283 283 283 283 283 283 282 282 281 281 281 281 281 280 279 279
298 298 297 296 296 296 295 295 293 291 290 290 291 291 290 290 290 289 289 289 289 289 289 289 289 289 288 288 288 287 287 287 287 286 286 285 284 283 283 283 283 283 283 283 283 283 283 283 283 283 282 282 282 281 281 281 280 280 280 279 278 277
297 297 296 295 295 295 294 293 292 291 291 291 291 291 291 290 290 290 290 289 289 289 289 289 289 288 288 287 287 287 287 287 286 286 285 284 283 283 283 283 283 283 283 282 282 283 283 283 283 282 282 281 281 281 280 280 280 279 279 278 277 276
295 294 294 294 293 293 293 293 292 292 292 292 291 291 291 290 290 290 289 289 289 289 289 288 288 287 287 287 287 287 287 286 286 285 284 283 283 282 282 282 282 282 282 282 282 283 283 283 282 282 281 281 280 280 280 279 279 278 278 277 276 275
293 292 292 292 292 292 292 292 292 292 292 291 291 290 290 289 289 289 289 289 289 289 288 288 287 287 287 287 287 287 286 286 285 284 283 283 282 282 282 282 282 282 282 282 282 283 283 283 282 281 281 280 280 279 278 278 278 277 277 276 275 275
292 292 292 291 291 291 291 291 291 291 290 290 290 289 289 289 289 289 289 289 289 288 288 287 287 287 287 287 286 286 286 285 284 283 282 282 282 282 282 282 282 282 282 282 282 282 282 282 281 280 280 280 278 278 277 277 277 276 276 275 275 274
291 291 291 291 291 291 291 290 290 290 290 289 289 289 289 289 289 289 289 288 288 288 287 287 287 287 287 286 286 286 285 284 283 282 282 282 281 282 282 282 282 282 282 282 282 282 281 281 281 280 279 279 278 277 277 276 276 276 276 275 274 273
291 291 290 290 290 290 290 290 290 289 289 289 289 289 289 289 289 289 289 288 288 287 287 287 287 287 287 286 286 285 284 283 282 282 281 281 281 281 281 281 282 282 282 282 282 281 281 280 280 280 279 278 277 277 276 276 276 276 275 274 273 272
291 290 290 290 290 290 290 290 289 289 289 289 289 289 289 289 289 288 288 288 288 287 287 287 287 286 286 286 286 285 283 282 281 281 281 281 281 281 281 281 281 282 282 282 281 281 280 279 279 279 278 277 277 276 276 276 275 274 273 272 271 271
291 290 290 290 290 289 289 289 289 289 288 288 288 288 288 288 288 288 288 288 287 287 286 286 286 286 286 285 285 284 282 281 281 281 281 280 281 281 281 281 281 281 282 281 281 281 280 279 278 278 278 277 277 277 276 276 274 273 271 271 271 271
291 290 290 290 289 289 289 289 289 288 288 288 288 288 288 288 288 288 288 287 287 286 286 286 286 285 285 285 284 283 282 281 281 280 280 280 280 280 281 281 281 281 281 281 281 280 279 279 278 278 277 277 277 277 276 275 274 273 272 272 272 271
291 290 290 290 289 289 289 289 289 288 288 288 288 288 288 288 288 287 287 287 286 286 286 286 285 285 285 284 282 282 281 281 280 280 280 280 280 280 280 280 280 280 280 281 281 280 279 278 278 278 277 277 277 276 276 275 274 273 272 272 272 272
291 290 290 290 289 289 289 289 289 289 288 288 288 288 288 287 287 287 286 286 286 286 286 285 285 285 284 282 281 281 281 280 280 280 279 279 279 280 280 280 280 280 280 280 280 279 279 278 278 278 277 277 276 276 276 275 273 272 272 272 272 272
291 290 290 290 289 289 289 289 289 288 288 288 288 288 288 287 287 286 286 286 286 285 285 285 285 284 283 282 281 281 280 280 280 279 279 279 279 279 279 279 279 279 279 279 279 279 278 278 277 277 277 276 276 276 276 274 272 272 272 272 272 272
291 291 290 290 290 289 289 289 289 288 288 288 288 288 287 287 286 286 286 285 285 285 285 285 284 284 282 281 280 280 280 279 279 279 279 279 279 279 279 279 278 278 278 278 278 278 277 277 277 276 276 276 276 275 274 272 272 271 271 272 272 272
291 291 290 290 290 289 289 289 288 288 288 288 288 287 287 287 286 286 285 285 285 285 285 284 284 283 282 280 280 280 279 279 279 279 279 278 278 278 278 278 278 278 277 277 277 277 277 276 276 276 275 275 274 272 271 271 271 272 272 272 272 272
291 291 290 290 290 289 289 288 288 288 288 288 288 287 287 287 286 285 285 285 284 284 284 284 284 283 281 280 280 280 279 279 278 278 278 278 278 278 278 278 278 277 277 276 276 275 275 275 275 275 274 272 271 271 271 272 272 272 272 272 272 272
290 290 290 290 290 289 289 288 288 288 288 288 288 287 287 286 286 285 285 284 284 284 284 284 283 282 280 280 280 280 279 278 278 278 278 278 278 277 277 277 277 276 275 275 275 274 274 274 274 274 272 271 270 271 272 272 273 273 273 273 273 273
290 290 290 290 289 289 288 288 288 288 288 288 287 287 287 286 285 285 284 284 284 284 283 283 282 281 280 280 280 280 279 279 278 277 277 277 277 277 276 276 276 275 275 275 274 274 274 274 274 274 273 271 270 271 272 273 273 274 274 274 274 274
290 290 290 290 289 289 288 288 288 288 288 288 287 287 286 285 285 284 284 284 283 283 283 282 281 280 279 279 279 279 279 279 279 278 277 277 277 276 276 276 276 275 275 274 274 274 274 274 274 273 272 270 270 271 272 273 273 273 273 273 273 273
291 290 290 290 289 289 288 288 288 288 288 287 287 286 286 285 284 284 283 283 283 282 282 281 280 279 279 279 279 279 279 278 279 279 278 277 276 276 276 276 276 275 275 274 274 274 274 274 273 273 271 270 270 272 272 272 273 273 273 273 273 273
290 290 290 289 289 288 288 288 288 288 287 287 286 286 285 284 284 283 283 283 282 282 281 280 279 279 279 279 278 278 278 278 278 278 278 278 277 276 275 275 275 275 275 275 274 274 274 274 273 272 272 271 271 272 272 272 273 273 273 272 272 272
290 290 290 289 288 288 288 288 287 287 286 286 286 285 284 283 283 283 282 282 282 281 280 279 278 278 278 278 278 278 278 278 277 277 277 276 276 276 275 275 275 275 275 275 274 274 274 273 273 272 272 272 272 271 272 272 273 273 273 273 272 272
290 290 289 288 288 287 287 287 286 286 286 285 285 284 283 283 282 282 281 281 280 280 279 278 278 278 278 277 277 277 277 277 277 276 276 275 275 275 275 275 274 274 274 274 274 274 274 273 272 272 272 272 271 271 271 272 272 273 273 273 272 272

ECMWFFLT1_850_thetae_042.txt.gz
Theta_e
300 300 300 300 299 299 299 299 298 298 298 298 298 298 297 297 297 296 296 296 295 295 295 295 294 293 292 292 292 291 291 291 290 290 290 290 290 290 290 290 290 290 289 289 289 289 289 289 289 289 288 288 288 288 288 287 287 287 286 286 286 286
300 300 300 300 299 299 299 298 298 297 297 297 296 296 296 296 296 296 295 295 295 294 294 293 292 292 291 291 291 290 290 290 290 290 290 290 290 290 289 289 289 289 289 289 288 288 288 288 288 288 288 288 287 287 287 286 286 286 286 286 286 286
300 300 299 299 299 298 298 298 297 297 296 296 296 295 296 296 295 295 295 294 294 293 292 291 291 291 291 290 290 290 289 289 289 290 290 289 289 289 289 289 289 288 288 288 288 288 288 288 288 288 287 287 287 286 286 286 285 285 285 285 285 285
300 299 299 299 298 298 298 297 297 296 296 295 295 295 295 295 295 294 293 293 292 291 291 290 290 290 290 290 289 289 289 289 290 290 289 289 289 289 289 289 288 288 288 288 288 288 287 287 287 287 287 287 286 286 285 285 285 285 285 285 285 285
300 299 299 298 298 298 298 297 296 295 295 295 295 295 294 294 293 293 292 292 291 290 290 289 289 289 289 289 289 289 289 290 289 289 289 289 289 289 288 288 288 288 288 287 287 287 287 287 287 287 287 286 286 285 285 285 285 285 285 284 284 284
299 299 299 299 299 298 297 296 295 294 295 295 294 294 294 293 292 291 291 291 290 290 289 289 289 289 289 289 289 289 290 290 289 289 289 289 289 288 288 288 288 287 287 287 287 287 287 287 287 287 286 285 285 284 284 284 284 284 284 284 284 284
299 299 299 299 299 298 297 295 295 294 295 294 294 293 292 292 291 291 290 290 289 289 289 289 289 288 289 289 289 290 289 290 289 289 289 289 288 288 288 288 287 287 287 287 287 287 287 287 287 286 285 285 284 284 284 284 284 284 284 284 284 284
299 300 300 300 299 297 296 295 295 295 294 294 293 293 292 291 291 290 290 289 289 289 288 288 288 288 289 289 290 290 290 289 289 289 289 288 288 288 288 287 287 287 287 286 286 286 287 287 286 286 285 284 284 284 284 284 284 284 284 284 284 284
300 300 300 299 298 296 295 295 295 295 294 294 293 292 291 291 291 290 289 289 288 288 288 288 288 288 289 290 290 290 290 289 289 289 289 288 288 288 287 287 287 287 287 286 286 286 286 286 286 285 284 284 283 284 284 284 284 284 284 284 284 284
301 300 300 299 297 295 295 295 295 295 294 294 293 292 291 291 290 290 289 289 288 288 288 288 288 289 289 290 290 290 289 289 289 289 288 288 288 288 287 287 287 287 287 286 286 286 286 286 285 284 284 283 283 283 284 284 284 284 284 283 283 284
301 300 299 298 296 295 295 295 295 294 294 294 293 292 292 291 290 289 289 288 288 288 288 288 288 289 290 290 290 290 289 289 289 289 288 288 288 288 287 287 287 287 286 286 286 286 286 285 285 284 283 283 283 283 283 283 283 283 283 283 283 283
300 299 299 297 297 296 296 296 295 295 294 294 293 293 292 292 290 289 289 288 288 288 288 288 288 289 290 290 290 289 289 289 289 289 288 288 288 288 287 287 287 287 286 286 285 285 285 285 284 283 283 283 283 283 283 283 283 283 283 283 283 283
299 299 298 298 298 298 297 297 296 296 295 294 294 293 294 293 291 289 288 288 288 288 287 288 289 290 290 290 289 289 289 289 289 289 288 288 288 287 287 287 287 286 286 285 285 285 285 284 283 283 282 282 282 283 283 283 283 283 283 283 283 283
300 300 299 299 299 299 299 298 297 296 296 295 294 294 294 293 291 289 288 288 287 287 287 288 289 290 289 289 289 289 289 289 289 288 288 288 288 287 287 287 287 286 286 285 285 285 284 283 283 282 282 282 282 282 283 283 283 283 283 283 283 283
300 300 300 300 299 299 299 299 298 297 297 296 295 294 293 293 291 290 289 288 287 287 287 288 289 289 289 289 289 289 289 289 289 288 288 288 287 287 287 287 287 286 285 285 285 284 283 282 282 282 282 282 282 282 282 283 283 283 283 283 282 282
299 299 299 299 299 300 299 299 298 298 297 296 295 293 293 293 292 291 290 289 288 287 287 288 288 289 289 288 289 289 289 289 289 288 288 287 287 287 287 287 286 286 285 285 285 284 283 282 282 282 282 282 282 282 282 283 283 283 282 282 282 282
298 298 299 299 300 300 300 299 298 297 296 295 294 293 293 293 293 293 292 291 289 287 287 287 288 288 288 288 289 289 289 289 288 288 288 287 287 287 287 287 286 286 285 285 285 284 282 282 282 282 282 282 282 282 282 282 282 282 282 282 282 282
298 298 299 299 299 298 298 298 298 297 296 295 294 293 293 293 293 293 293 291 289 288 287 288 288 288 288 289 289 289 289 288 288 288 287 287 287 287 287 286 286 285 285 285 284 284 282 281 281 281 281 282 282 282 282 282 282 282 282 282 282 281
298 299 298 298 298 297 297 297 297 297 296 295 294 293 293 293 293 293 293 292 290 288 287 288 288 289 289 289 289 289 289 288 288 288 287 287 287 287 287 286 286 285 285 285 284 283 282 281 281 281 281 282 282 282 282 282 282 282 282 282 281 281
298 298 297 297 297 297 297 297 297 296 296 295 294 294 294 294 293 293 292 291 289 288 288 289 289 289 289 289 289 289 288 288 288 287 287 287 287 287 287 286 286 285 285 284 284 283 282 281 281 281 281 281 281 282 282 282 282 282 281 281 280 280
298 297 297 296 296 296 296 296 296 295 295 295 294 294 294 293 293 292 292 291 290 289 289 290 289 289 289 288 289 288 288 288 288 287 287 287 287 287 286 286 286 285 285 284 283 282 281 281 281 281 281 281 281 281 281 281 281 281 281 280 280 279
297 297 296 296 295 295 294 294 294 293 293 293 293 293 293 292 292 292 292 291 290 290 290 289 289 288 288 288 288 288 288 288 287 287 287 287 287 287 286 286 286 285 285 284 283 282 281 281 281 281 281 281 281 281 281 281 281 280 280 279 279 279
296 295 295 294 294 293 293 292 292 292 292 291 291 291 291 291 291 291 291 291 290 289 289 288 288 288 288 288 288 288 288 288 287 287 287 287 287 286 286 286 286 285 285 284 282 281 281 281 281 281 281 280 280 280 280 280 280 279 279 279 278 278
295 294 293 293 292 292 292 291 291 291 291 290 290 290 290 291 291 290 290 290 289 289 288 288 288 288 288 288 288 288 288 287 287 287 287 287 286 286 286 286 285 285 285 283 282 281 281 281 281 280 280 280 280 280 279 279 279 278 278 278 278 277
293 293 292 292 292 292 291 291 291 291 290 290 290 290 290 290 290 290 289 289 288 288 288 288 288 288 288 288 288 288 287 287 287 287 287 286 286 286 286 285 285 285 284 283 281 281 280 280 280 280 280 280 279 279 279 278 278 278 277 277 277 276
292 292 292 292 291 291 291 291 291 291 291 290 290 289 289 289 289 289 289 288 288 289 289 289 288 288 288 288 288 287 287 287 287 287 286 286 286 286 285 285 285 285 284 283 281 280 280 280 280 280 279 279 279 279 278 278 278 277 277 276 275 274
292 292 291 291 291 291 291 291 291 291 291 291 290 290 289 289 289 289 289 289 289 289 289 289 288 288 288 288 288 287 287 287 287 286 286 286 285 285 285 285 285 284 283 282 281 280 280 280 280 280 279 279 279 278 278 277 277 277 276 276 275 274
292 292 291 291 291 291 291 291 291 291 291 291 290 290 290 290 289 289 289 289 289 289 289 289 288 288 288 288 287 287 287 287 286 286 286 285 285 285 285 284 284 284 283 281 280 280 280 280 280 279 279 278 278 278 278 277 277 276 276 275 274 275
292 292 292 291 291 291 291 291 291 291 291 291 291 290 290 290 290 290 289 289 289 288 288 288 289 288 288 288 287 287 287 286 286 285 285 285 284 284 284 284 284 283 282 281 280 279 279 279 279 279 278 278 278 278 277 277 276 275 274 274 274 275
292 292 292 292 291 291 291 291 291 291 291 291 291 291 290 290 290 290 289 289 289 288 288 288 288 288 288 288 287 287 287 286 286 285 285 284 284 284 284 284 283 283 282 281 280 279 279 279 279 279 278 278 278 277 276 276 274 273 272 273 274 274
291 291 291 291 291 291 291 291 291 291 291 291 291 291 291 290 290 290 289 289 289 288 288 288 288 288 288 287 287 287 286 286 285 285 284 284 284 284 283 283 283 282 281 280 279 279 279 279 279 278 278 277 277 275 275 274 273 272 272 273 274 274
291 291 291 291 291 291 291 291 291 291 291 290 290 290 290 290 290 290 290 289 289 288 288 288 288 288 288 287 287 286 286 285 285 285 284 284 283 283 283 283 282 281 280 279 279 279 279 279 279 278 277 276 275 274 274 273 272 273 273 274 274 273
291 291 291 291 291 291 291 291 291 291 290 290 290 290 290 290 290 289 289 289 289 288 288 288 288 288 288 287 286 286 285 285 285 285 284 284 283 283 283 283 282 281 280 279 279 279 279 279 278 277 276 275 275 274 273 272 273 274 274 274 273 273
291 291 291 291 291 291 291 291 291 290 290 290 290 290 290 290 289 289 289 289 288 288 288 288 288 288 287 286 286 285 285 284 284 284 284 283 283 282 282 282 281 280 279 279 278 278 278 278 277 277 276 275 275 274 272 272 273 274 274 273 272 272
291 291 291 291 291 291 291 291 291 290 290 290 290 290 290 289 289 289 289 288 288 287 287 287 287 287 286 286 285 285 284 284 283 283 283 282 282 282 281 281 280 279 278 278 278 277 277 277 276 276 275 275 274 273 272 272 274 274 273 272 272 272
291 291 291 291 291 291 291 291 290 290 290 290 290 290 289 289 289 289 288 288 287 287 286 286 286 285 285 285 284 284 283 283 283 282 282 281 281 281 280 280 279 278 278 277 277 276 276 276 275 275 275 275 274 272 272 273 274 273 273 272 272 272
290 290 290 290 290 290 290 290 290 290 290 290 290 290 289 289 289 288 288 287 286 286 285 285 284 284 284 284 283 283 283 283 282 282 281 281 280 280 279 278 277 277 277 277 276 276 276 275 275 275 275 274 273 273 273 273 273 273 272 272 271 271
290 290 290 290 290 290 290 290 290 290 290 290 290 289 289 289 288 288 287 287 286 284 284 283 283 283 283 282 282 282 282 282 282 281 281 280 280 279 278 277 276 276 276 276 276 275 275 275 274 274 274 273 273 273 273 273 272 272 272 272 271 271

ECMWFFLT1_850_thetae_045.txt.gz
Theta_e
302 302 301 301 301 301 300 300 300 300 300 300 299 299 299 299 298 298 298 297 297 297 296 296 296 295 295 294 294 294 293 293 293 293 292 292 292 292 292 292 292 291 291 291 290 290 290 289 289 289 288 288 288 288 287 287 287 286 286 286 286 285
302 301 301 301 300 300 300 300 300 300 299 299 299 299 298 298 298 298 297 297 296 296 296 296 295 295 294 293 293 293 292 292 292 292 292 292 291 291 291 291 291 290 290 290 289 289 289 288 288 288 288 287 287 287 287 286 286 286 285 285 285 285
301 301 301 301 300 300 300 300 299 299 299 299 298 298 298 298 297 297 296 296 296 295 295 295 294 293 293 292 292 292 291 291 291 291 291 291 291 291 291 290 290 290 289 289 289 289 288 288 288 287 287 287 287 287 287 286 286 285 285 285 285 285
301 301 301 300 300 300 300 299 299 299 299 298 298 297 297 297 297 296 296 295 295 294 294 294 293 292 292 291 291 291 291 291 290 290 290 290 290 290 290 290 290 289 289 289 288 288 288 288 287 287 287 287 287 287 287 286 285 285 285 285 284 284
301 301 300 300 300 299 299 299 299 299 298 298 297 297 297 296 296 296 295 295 294 294 293 292 292 291 291 290 290 290 290 290 290 290 290 290 290 290 290 290 289 289 289 288 288 288 288 287 287 287 287 287 287 287 286 286 285 285 284 284 284 284
301 301 300 300 300 299 299 299 298 298 298 298 297 296 296 295 295 295 294 294 293 293 292 291 291 290 290 290 290 290 289 289 290 290 290 290 290 289 289 289 289 289 288 288 288 287 287 287 286 286 286 287 287 287 286 286 285 284 284 284 284 284
301 301 300 300 300 299 299 298 298 298 298 298 297 295 295 294 294 294 294 293 293 292 291 291 290 290 290 289 289 289 289 289 290 290 290 290 289 289 289 289 289 288 288 288 287 287 287 287 286 286 286 286 287 287 286 285 285 284 284 284 284 284
301 301 300 300 300 299 299 298 298 298 298 297 296 295 294 294 294 294 293 292 292 291 291 290 290 289 289 289 289 289 289 289 289 290 289 289 289 289 289 289 288 288 288 287 287 287 287 286 286 286 286 286 286 286 286 285 284 284 284 284 284 284
301 301 300 300 300 299 299 298 298 298 298 296 295 294 294 294 294 293 292 292 291 291 290 290 289 289 289 289 289 289 289 290 289 289 289 289 289 289 289 289 288 288 288 287 287 287 286 286 286 286 286 286 286 286 286 285 284 284 284 284 284 284
301 300 300 300 299 299 299 299 298 298 297 296 295 294 294 294 293 293 292 291 291 290 290 289 289 289 289 289 289 289 289 290 289 289 289 289 289 289 289 288 288 288 287 287 287 287 286 286 286 286 286 286 286 285 285 284 284 283 283 283 283 283
301 300 300 300 300 300 299 299 298 298 296 295 295 295 294 294 293 292 292 291 291 290 289 289 289 289 288 288 288 289 289 290 289 290 289 289 289 289 289 288 288 288 287 287 287 287 286 286 286 286 286 285 285 285 284 283 283 283 283 283 283 283
301 301 301 300 300 300 299 299 299 297 296 295 295 295 294 294 293 292 292 291 290 289 289 289 288 288 288 288 288 289 289 290 289 289 290 289 289 289 288 288 288 288 287 287 287 287 287 286 285 285 285 285 285 284 284 283 283 283 283 283 283 283
302 301 301 301 301 300 300 299 299 297 296 295 295 295 295 294 293 292 292 291 290 289 289 289 288 288 288 288 288 289 289 289 289 289 289 289 289 289 288 288 288 288 287 287 287 287 287 286 285 285 285 285 284 283 283 283 283 283 283 283 283 283
302 302 302 302 301 300 300 299 299 297 296 295 296 296 295 294 294 293 292 291 290 289 289 289 288 288 288 288 288 289 289 289 289 289 289 289 289 289 288 288 288 288 288 287 287 287 287 286 285 285 285 284 284 283 282 282 282 283 283 283 283 283
304 304 303 302 301 301 300 300 299 298 297 296 297 297 295 295 294 293 292 290 290 289 289 288 288 288 288 288 288 288 289 289 289 289 289 289 289 289 288 288 288 288 287 287 287 287 286 286 285 285 285 284 283 282 282 282 282 282 282 283 283 283
305 304 303 302 302 301 300 300 299 299 298 298 297 297 296 295 294 293 292 291 290 289 289 288 288 288 287 287 287 288 289 289 289 289 288 288 288 288 288 288 288 287 287 287 287 287 286 285 285 285 284 284 283 282 282 282 282 282 282 282 282 282
305 304 303 302 301 301 300 300 300 299 299 298 298 297 296 295 294 293 292 291 290 290 289 289 288 288 287 287 287 287 288 289 289 289 288 288 288 288 288 288 288 287 287 287 287 287 286 285 285 285 284 283 282 281 281 282 282 282 282 282 282 282
303 303 302 301 300 300 300 299 299 299 299 298 298 297 296 295 294 293 292 291 290 290 290 290 289 288 288 287 287 287 288 288 289 288 288 288 288 288 288 288 288 287 287 287 287 287 286 285 285 284 284 283 282 281 281 281 281 282 282 282 282 282
302 301 300 299 299 299 298 299 299 299 299 299 298 297 296 295 294 294 292 290 290 291 292 292 292 291 289 288 287 287 287 288 288 288 288 288 288 288 288 288 287 287 287 287 287 287 286 285 285 284 284 283 281 281 281 281 281 282 282 282 281 281
300 299 298 298 298 298 298 299 299 299 299 299 299 298 297 296 295 294 293 291 291 292 294 294 293 292 291 289 288 287 287 288 288 288 288 288 288 288 288 288 287 287 287 287 287 286 286 286 285 285 284 282 281 281 281 281 281 281 281 281 281 281
297 297 297 297 297 298 298 298 298 298 298 298 298 298 297 297 296 295 294 293 293 294 294 294 294 293 292 290 288 287 287 288 288 288 288 288 288 288 288 288 287 287 287 287 286 286 286 286 285 285 284 282 281 280 280 280 281 281 281 280 280 280
296 296 296 297 298 298 298 298 297 297 297 297 297 297 297 297 297 296 295 294 294 294 294 294 293 293 292 290 289 288 288 288 288 288 288 288 288 288 288 287 287 287 287 286 286 286 286 286 285 285 284 282 281 280 280 280 280 280 280 280 280 279
296 296 297 297 298 298 297 297 297 297 296 296 296 296 296 296 296 296 295 295 294 294 294 293 293 292 291 290 289 289 289 289 288 288 288 288 288 288 288 287 287 287 287 286 286 286 286 285 285 285 284 283 281 280 280 280 280 280 280 279 279 279
296 297 297 297 297 297 296 296 296 295 295 295 294 294 294 294 294 294 294 294 294 293 293 292 292 291 291 290 289 289 289 288 288 288 288 288 288 288 287 287 287 286 286 286 286 286 285 285 285 285 284 282 281 280 280 280 280 280 279 279 279 279
297 297 297 297 296 296 295 294 294 294 293 293 293 292 292 292 292 292 292 292 292 292 292 292 291 291 290 290 289 288 288 288 288 288 288 288 287 287 287 287 286 286 286 286 286 285 285 285 285 284 284 282 281 280 280 279 279 279 279 279 278 278
297 296 296 295 294 294 293 293 292 292 292 292 292 291 291 291 290 291 291 291 291 291 291 291 290 290 289 289 288 288 288 288 288 288 288 287 287 287 287 287 286 286 286 286 285 285 285 285 284 284 283 282 281 280 279 279 279 279 278 278 278 278
295 294 294 293 292 292 292 292 292 292 291 291 291 291 291 290 290 290 290 290 290 290 290 290 290 289 289 288 288 288 288 289 288 288 288 288 287 287 287 287 286 286 286 285 285 285 285 284 284 284 283 282 281 280 279 279 279 278 278 278 278 277
292 292 292 292 292 292 292 291 292 291 291 291 291 291 291 291 291 290 290 290 290 289 289 289 289 289 288 288 288 289 289 289 288 288 288 288 287 287 287 287 286 286 286 285 285 285 284 284 284 284 283 282 280 280 279 279 279 278 278 277 277 277
292 292 292 292 292 292 292 291 291 291 291 291 291 291 291 291 291 291 290 290 290 289 289 289 289 289 288 288 289 289 289 288 288 288 288 288 287 287 287 287 286 286 285 285 285 284 284 284 284 284 283 282 280 280 279 279 279 278 278 277 277 276
292 292 292 292 292 292 292 292 291 292 291 291 291 291 291 291 291 291 291 290 290 290 289 289 289 289 289 289 289 289 288 288 288 288 288 288 287 287 286 286 286 285 285 285 284 284 284 283 283 283 282 281 280 279 279 279 279 278 277 277 276 276
292 292 292 292 292 292 292 291 292 292 291 291 291 291 291 291 291 291 291 291 290 290 290 290 289 289 289 289 288 288 288 288 288 288 288 288 287 286 286 285 285 285 284 284 284 284 283 283 283 282 281 280 279 279 278 278 278 277 276 275 275 275
292 292 292 292 292 291 291 291 291 291 291 291 291 291 291 291 291 291 291 290 290 290 290 290 289 289 289 289 289 288 288 288 288 288 288 287 287 286 285 285 284 284 284 284 284 283 283 283 282 281 280 279 278 278 278 277 277 276 275 274 274 275
292 292 292 292 291 291 291 291 291 291 291 291 291 291 291 291 290 290 290 290 290 290 290 290 290 289 289 289 289 288 288 288 288 288 287 287 287 286 285 284 284 284 284 284 283 283 283 282 282 280 279 278 278 277 277 277 276 275 274 274 275 275
292 292 291 291 291 291 291 291 291 291 291 291 291 291 291 290 290 290 290 290 290 289 289 289 289 289 289 288 288 288 288 288 287 287 287 287 286 285 285 284 284 283 283 283 283 283 282 282 281 280 279 278 277 277 276 276 275 274 274 275 275 274
291 291 291 291 291 291 291 291 291 291 291 291 290 290 290 290 290 290 290 289 289 289 289 289 288 288 288 288 287 287 287 287 287 287 286 285 285 285 284 284 284 283 283 282 282 282 282 281 281 279 278 277 277 276 276 275 274 273 274 274 274 273
291 291 291 291 291 291 291 291 291 291 291 290 290 290 290 290 290 290 289 289 289 289 288 288 288 287 287 287 286 286 286 286 286 285 284 284 284 284 284 284 284 283 282 282 281 281 281 280 279 278 277 276 276 275 275 274 273 273 274 274 273 273
291 291 290 290 290 290 290 290 290 290 290 290 290 290 290 290 290 290 289 289 289 289 288 288 287 287 286 286 285 285 284 284 284 283 283 283 283 283 283 283 283 282 281 281 281 280 280 279 278 277 276 276 275 275 274 273 273 273 274 273 273 273
291 291 290 290 290 290 290 290 290 290 290 290 290 290 290 289 289 289 289 289 289 288 288 287 287 286 286 285 284 283 283 282 282 282 282 282 281 282 282 281 282 281 281 280 280 279 279 278 277 276 276 275 275 274 273 273 273 274 274 273 273 273

ECMWFFLT1_850_thetae_048.txt.gz
Theta_e
308 308 307 306 305 304 303 303 302 302 302 301 301 301 301 300 300 299 299 299 299 298 298 298 297 297 297 296 296 295 295 295 294 294 294 294 294 293 293 293 292 292 292 292 292 291 291 291 291 290 290 289 289 288 288 287 287 287 287 286 286 286
307 307 306 305 304 303 303 302 302 302 301 301 301 300 300 300 299 299 299 299 298 298 298 297 297 297 296 296 295 295 295 294 294 294 294 293 293 293 292 292 292 292 291 291 291 291 291 290 290 290 289 288 288 287 287 287 287 287 287 286 286 285
306 306 305 304 304 303 302 302 302 301 301 301 300 300 300 299 299 299 299 298 298 298 298 297 297 296 296 295 295 295 294 294 294 294 293 293 292 292 292 291 291 291 291 290 290 290 290 290 290 289 288 288 287 287 287 287 287 287 287 286 286 285
305 305 304 304 303 303 302 302 301 301 301 300 300 300 299 299 299 299 299 298 298 298 297 297 297 296 295 295 294 294 294 294 294 293 293 292 292 291 291 291 291 290 290 290 290 290 290 290 289 288 288 288 287 287 287 286 287 286 287 286 286 285
305 305 304 304 303 302 302 302 301 301 300 300 300 299 299 299 299 299 298 298 298 297 297 296 296 296 295 294 294 294 294 293 293 292 292 291 291 291 291 290 290 290 290 290 290 290 290 289 289 288 288 287 287 287 286 286 286 286 286 286 285 285
305 304 304 303 303 302 302 301 301 300 300 300 300 299 299 299 298 298 298 297 297 297 296 296 295 295 294 294 293 293 293 293 292 292 291 291 290 290 290 290 290 290 290 290 290 290 289 289 288 288 287 287 287 286 286 286 286 286 286 286 285 285
305 305 304 303 303 302 301 301 301 300 300 300 299 299 298 298 298 298 297 297 296 296 296 295 294 294 293 293 293 293 292 292 291 291 290 290 290 290 290 290 290 290 290 290 290 289 289 288 288 287 287 287 286 286 286 286 286 286 286 286 285 284
305 304 304 303 303 302 301 301 300 300 299 299 299 298 298 298 297 297 297 296 296 296 295 295 294 293 293 293 292 292 292 291 291 290 290 290 290 290 290 290 289 290 290 290 289 289 289 288 287 287 287 286 286 286 286 286 286 286 286 285 285 284
305 305 304 303 303 302 301 301 300 300 299 299 298 298 297 297 297 296 296 296 296 295 295 294 294 293 293 292 292 291 291 290 290 290 290 290 290 290 290 290 290 290 290 289 289 289 288 288 287 287 286 286 286 286 286 286 286 286 285 285 284 284
305 305 304 303 303 302 301 301 300 300 299 298 298 298 297 297 296 296 295 295 295 294 294 294 293 293 292 292 291 290 290 290 290 290 289 289 290 290 289 290 290 290 289 289 289 288 288 287 287 287 286 286 286 286 286 286 286 286 285 285 284 283
305 305 304 304 303 302 301 301 300 299 299 298 298 298 298 297 296 295 295 295 294 294 294 293 292 292 292 291 290 290 290 289 289 289 289 289 289 290 290 290 290 289 289 289 288 288 288 287 287 287 286 286 286 286 285 285 285 285 285 284 283 283
306 305 305 304 303 302 301 300 300 299 299 298 298 298 298 296 295 295 295 295 294 294 293 293 292 292 292 291 290 289 289 289 289 289 289 289 290 290 290 290 290 289 289 288 288 288 288 287 287 287 286 286 286 285 285 285 285 285 285 284 283 283
304 304 304 304 303 302 301 301 300 299 299 299 299 298 298 296 295 295 294 294 294 293 293 292 292 292 291 290 289 289 289 289 289 289 289 289 290 290 290 290 290 289 289 288 288 288 288 287 287 287 287 286 286 285 285 285 285 285 284 283 283 282
305 305 305 304 303 302 302 301 300 299 299 299 299 299 297 296 295 294 294 294 293 293 293 292 292 292 291 290 289 289 288 288 288 288 289 289 290 290 290 290 289 289 289 288 288 288 288 287 287 287 287 286 286 285 285 285 285 285 284 283 282 282
307 307 306 305 304 303 302 301 300 300 300 300 299 298 297 296 295 294 294 294 294 293 293 292 292 291 291 290 289 288 288 288 288 288 289 289 290 289 289 289 289 289 289 288 288 288 288 287 287 287 287 286 286 285 285 285 285 285 284 283 282 282
307 306 305 304 304 302 301 300 300 300 300 299 298 297 297 296 295 294 294 294 294 293 293 292 292 291 290 289 289 288 288 288 288 288 288 289 289 289 289 289 289 289 288 288 288 288 288 287 287 287 287 286 286 285 285 285 285 284 284 283 282 282
306 305 305 304 303 301 300 300 300 299 299 298 298 297 297 296 295 295 295 295 294 293 292 292 292 291 290 289 288 288 288 288 288 288 288 289 289 289 289 289 288 288 288 288 288 288 287 287 287 287 287 286 286 286 285 285 285 284 284 283 282 282
307 306 305 304 302 301 301 301 300 299 299 298 298 297 297 296 295 295 295 295 294 293 293 292 292 291 290 289 288 288 288 288 288 288 288 288 289 289 288 288 288 288 288 288 288 288 287 287 287 287 287 287 286 286 285 285 285 284 284 283 282 281
306 305 304 303 303 302 302 301 300 300 299 299 298 297 297 296 295 295 295 295 294 293 293 292 292 291 290 289 289 288 288 288 287 287 287 288 288 288 288 288 288 288 288 288 288 288 287 287 287 287 287 286 286 286 286 285 285 285 284 283 282 281
304 304 303 302 302 302 301 301 300 300 299 299 298 298 297 296 296 296 295 295 294 294 293 292 292 291 291 290 289 289 289 288 288 287 287 287 287 287 287 287 287 288 288 288 288 287 287 287 287 287 286 286 286 286 286 285 285 285 284 283 282 281
303 302 302 302 302 302 301 300 300 299 299 299 298 298 297 297 297 297 296 296 295 295 293 293 292 292 291 290 290 290 290 289 288 287 287 287 287 287 287 287 287 288 288 287 287 287 287 287 286 286 286 286 286 286 286 285 285 285 285 283 282 281
302 302 302 302 301 301 300 299 298 298 298 299 298 298 298 298 298 298 298 297 296 295 294 293 293 292 291 290 290 291 291 290 289 288 288 287 287 286 287 287 288 288 288 287 287 287 287 287 286 286 286 286 286 286 285 285 285 285 285 284 282 281
301 300 300 299 299 298 298 298 298 298 298 298 298 298 298 298 297 297 297 297 296 295 295 294 294 293 291 290 291 291 291 291 290 290 289 288 288 287 287 288 288 288 288 288 287 287 287 287 286 286 286 286 286 285 285 285 285 285 284 283 282 281
298 298 297 297 297 297 297 298 298 298 298 297 297 297 297 296 296 296 296 296 296 296 295 295 294 293 292 291 291 291 292 292 291 291 290 290 289 288 288 288 288 288 288 288 288 287 287 287 286 286 286 286 285 285 285 285 285 285 284 283 283 282
296 296 296 296 297 297 297 297 297 297 297 297 297 296 296 295 295 295 295 295 295 295 295 295 294 293 292 292 292 292 292 292 292 291 291 290 289 289 289 288 288 288 288 288 287 287 287 287 286 286 286 285 285 285 285 285 285 284 284 283 283 282
296 296 296 296 297 297 297 297 297 296 296 296 295 295 294 293 293 293 293 293 293 294 294 294 294 294 293 293 293 293 292 292 292 291 291 290 290 289 288 288 288 288 288 288 288 287 287 287 286 286 286 285 285 285 285 284 284 284 283 283 282 282
295 295 296 297 297 297 297 296 296 295 294 294 293 292 292 292 292 292 292 291 291 292 292 293 293 293 292 292 292 292 292 291 291 291 290 290 289 288 288 288 288 288 288 288 288 287 287 287 286 286 285 285 285 285 285 284 284 283 283 282 282 281
295 295 296 296 296 296 295 294 293 292 292 292 292 291 292 291 291 291 291 291 291 290 290 291 291 291 291 291 291 291 291 291 290 290 290 289 288 288 288 288 288 288 288 288 288 287 287 287 286 286 285 285 285 285 284 284 284 283 283 282 281 280
294 294 294 294 294 293 292 292 292 292 291 291 291 291 291 291 291 291 291 291 291 290 290 290 290 290 290 290 290 290 290 290 290 289 289 289 288 288 288 288 289 288 288 288 288 287 287 286 286 286 285 285 284 284 284 284 284 283 283 282 281 280
293 293 293 292 292 292 292 292 292 292 291 291 291 291 291 291 291 291 291 291 291 291 291 291 290 290 290 290 289 289 289 289 289 289 289 289 288 288 288 289 289 289 288 288 288 287 287 286 286 286 286 285 284 284 283 283 283 283 282 282 281 279
292 292 292 292 292 292 292 292 292 292 291 291 291 291 291 291 291 291 291 291 291 291 291 291 291 291 290 290 290 289 289 289 289 289 289 289 288 288 288 288 288 288 288 288 287 286 286 286 286 286 285 284 284 283 283 282 282 282 281 281 280 279
293 292 292 292 292 292 292 292 292 292 291 291 291 291 291 291 291 291 291 291 291 291 290 290 290 290 290 290 290 290 289 289 289 289 289 288 288 288 288 288 288 287 287 287 286 285 285 285 285 285 284 284 283 283 282 282 281 281 280 280 279 278
293 293 293 293 292 292 292 291 291 291 291 291 291 291 291 291 291 291 291 291 290 290 290 290 290 290 290 290 290 289 289 289 289 289 288 288 288 288 288 287 287 287 287 286 285 284 284 284 284 284 284 283 283 282 282 281 280 279 279 278 277 276
293 293 293 292 292 292 291 291 291 291 291 291 291 291 291 291 291 290 290 290 290 290 290 290 290 290 289 289 289 289 289 289 288 288 288 288 288 287 287 287 286 286 285 285 284 284 283 283 282 282 282 282 281 281 281 280 279 278 277 276 275 275
292 292 292 292 292 291 291 291 291 291 291 291 291 291 291 291 291 290 290 290 290 290 290 290 290 290 289 289 289 289 288 288 288 287 287 287 286 286 286 286 285 284 284 283 283 283 282 282 281 281 281 280 280 280 280 279 278 277 276 275 275 275
292 292 292 291 291 291 291 291 291 291 291 291 291 291 291 291 291 290 290 290 290 290 290 290 290 289 289 289 289 288 288 287 287 286 286 285 285 285 285 284 284 283 282 282 281 281 281 281 281 280 280 279 279 279 278 277 276 276 276 275 274 274
292 292 291 291 291 291 291 291 291 290 290 290 290 291 290 290 290 290 290 290 290 290 290 289 289 289 289 289 288 288 288 287 286 286 285 284 284 283 283 283 282 281 280 280 280 280 280 280 279 279 279 278 278 277 276 275 275 275 275 275 274 274
291 291 291 291 291 291 291 291 291 291 291 290 291 290 290 290 290 290 290 290 289 289 289 289 289 289 288 288 288 287 287 286 286 285 284 283 282 282 282 282 281 280 279 279 279 279 279 279 279 278 278 278 277 276 274 274 274 274 274 274 274 274